GFSFLT1_700_spd_000.txt.gz
Wind_Speed
14 13 9 14 17 20 17 25 22 22 29 24 21 22 24 31 32 28 38 33 38 37 39 41 40 41 42 37 35 37 35 36
22 23 23 24 21 22 19 22 24 22 27 26 26 28 33 33 32 36 36 37 42 38 40 43 39 44 43 42 41 38 39 37
21 28 28 21 19 19 18 22 23 22 29 31 28 38 36 35 34 36 41 46 47 49 47 48 47 40 42 40 39 40 41 40
19 22 17 15 16 16 20 23 23 24 31 34 39 37 37 37 39 48 52 55 52 37 42 42 42 40 38 40 41 43 47 45
2 9 9 10 11 15 18 22 23 27 33 34 36 38 39 50 49 40 38 38 39 40 38 38 39 43 42 44 46 49 50 52
10 11 13 15 17 19 23 28 30 32 34 36 40 46 46 46 44 46 43 45 42 39 41 43 46 50 51 50 52 53 55 56
11 16 21 21 23 25 25 26 30 34 37 39 41 40 40 45 50 53 51 48 46 45 48 51 52 54 54 55 56 56 55 53
2 3 11 22 24 21 21 23 25 31 39 42 40 46 52 54 49 48 48 50 49 50 52 51 54 57 57 57 53 45 46 38
8 15 17 22 27 30 30 31 30 34 38 43 48 53 53 48 49 49 51 50 49 49 53 54 56 56 53 53 47 39 35 34
14 9 16 20 24 29 38 37 36 31 38 43 54 53 51 50 55 52 47 47 47 51 53 53 54 53 48 45 40 38 39 36
11 11 19 24 29 33 33 36 39 43 40 53 46 46 49 49 46 45 48 48 50 52 53 53 48 45 42 40 38 36 37 36
15 14 16 23 31 40 34 43 46 44 49 51 48 42 42 42 43 47 49 51 52 50 46 42 39 39 35 35 34 33 33 32
23 27 30 36 40 39 46 46 47 49 49 48 39 39 39 40 44 47 49 51 48 47 46 44 41 37 35 33 33 35 38 38
28 33 32 37 41 41 44 47 45 43 42 40 37 38 41 42 43 50 49 46 47 44 42 37 33 33 34 34 35 34 35 36
31 28 40 42 44 47 44 36 39 39 39 37 42 44 48 46 48 43 45 45 45 41 34 32 33 33 34 35 34 34 35 35
32 41 44 47 45 37 35 36 33 35 35 34 48 50 48 52 46 44 47 45 40 38 34 32 31 32 34 35 37 37 37 38
38 44 44 38 35 32 35 35 32 39 41 48 49 43 37 39 37 41 43 38 37 38 34 35 34 35 38 41 42 41 41 42
43 42 27 28 33 36 34 35 38 35 41 45 48 38 40 36 45 47 39 33 38 37 34 35 39 40 41 45 45 43 44 42
36 25 28 27 39 32 38 46 44 34 34 39 45 48 46 38 43 37 32 34 39 34 35 38 42 41 43 46 47 42 39 38

GFSFLT1_700_spd_003.txt.gz
Wind_Speed
16 14 10 11 16 19 19 24 26 25 20 27 27 26 27 27 33 42 41 38 38 37 41 49 51 49 43 38 39 33 33 35
22 21 16 15 17 23 28 24 19 16 27 20 24 28 32 38 42 34 31 34 40 48 41 44 48 39 34 35 36 36 35 36
21 22 22 22 23 21 21 24 22 25 28 27 29 30 34 38 32 38 42 44 51 46 43 41 41 42 37 33 35 39 38 39
22 23 22 19 12 11 12 14 17 21 25 29 33 37 39 38 35 40 46 47 45 46 42 41 42 40 39 38 39 41 45 44
22 17 7 6 8 13 15 16 18 23 27 32 34 34 35 37 43 49 46 48 48 44 43 43 42 41 43 46 46 46 47 48
16 15 12 14 17 20 22 25 24 28 29 32 33 37 42 44 45 47 52 50 46 43 42 42 43 44 44 46 48 51 52 52
13 14 15 15 18 21 20 20 24 28 32 35 36 36 38 43 48 51 50 46 45 46 48 44 44 45 47 50 49 50 48 47
18 21 21 21 18 21 27 26 32 34 37 38 40 44 44 52 52 45 44 47 47 41 41 42 43 46 48 50 50 48 46 44
10 13 15 18 18 22 37 39 37 38 40 46 47 48 48 51 55 46 43 47 47 46 44 46 48 50 52 51 47 44 43 41
17 16 20 8 17 26 35 39 41 45 45 46 46 48 48 54 57 48 52 51 46 45 47 49 50 48 46 43 41 40 41 42
11 20 23 24 25 33 36 41 42 42 48 45 44 47 49 55 53 52 50 45 46 46 47 45 44 43 42 39 37 36 36 36
19 19 25 30 29 32 39 40 42 43 46 44 41 43 50 48 41 44 48 46 47 46 46 47 47 43 38 33 33 33 32 31
23 26 28 32 39 38 37 42 45 44 42 40 39 42 46 34 45 52 58 45 44 41 49 49 43 37 34 34 33 33 32 31
27 27 39 42 38 42 45 45 41 36 38 40 41 41 41 38 47 54 54 42 38 50 52 42 41 37 34 33 33 33 34 35
31 37 39 38 44 47 45 37 36 36 37 40 42 42 43 46 55 53 46 36 44 47 43 42 44 33 30 32 35 36 38 40
39 42 41 43 47 44 37 39 38 37 39 38 43 42 42 47 51 57 33 38 42 40 40 42 42 33 32 36 41 42 44 45
39 36 43 44 41 38 41 45 43 44 45 42 37 41 44 47 51 44 31 29 34 40 38 44 37 36 38 41 45 46 48 49
39 42 43 38 36 40 44 45 46 47 47 42 36 37 40 42 46 27 29 31 33 34 40 38 36 38 43 44 47 50 48 44
39 33 29 31 35 42 45 46 47 47 44 41 36 38 41 44 37 30 27 30 31 34 35 36 36 38 40 45 46 44 43 38

GFSFLT1_700_spd_006.txt.gz
Wind_Speed
19 18 13 12 12 13 16 18 21 21 22 22 18 17 21 26 28 27 32 35 33 33 41 50 45 43 41 40 39 38 40 41
19 18 17 14 16 18 18 19 24 21 20 13 15 22 26 29 32 32 30 33 36 46 45 46 45 48 47 42 41 40 40 39
21 20 17 16 20 21 20 15 15 14 13 18 23 25 28 28 30 36 41 41 44 42 46 48 49 45 42 41 42 43 42 42
17 16 16 15 10 7 7 7 10 15 20 24 26 27 29 34 36 36 36 41 44 47 49 47 43 42 43 43 42 44 46 46
12 14 11 4 6 9 12 13 17 21 24 26 28 31 34 37 38 38 38 43 48 49 45 41 41 43 46 47 46 45 46 47
10 14 16 16 18 19 18 21 24 23 24 26 26 29 29 32 37 39 45 48 49 49 42 40 43 44 41 43 43 44 46 47
7 8 8 10 16 19 17 14 20 22 27 34 36 39 42 44 46 50 48 50 49 56 44 43 42 44 44 44 46 49 51 51
11 12 17 18 25 20 24 27 30 32 39 42 43 46 50 51 47 48 40 52 43 52 43 43 45 48 48 50 52 53 50 47
9 15 18 21 23 27 28 28 29 35 41 44 46 47 43 46 53 54 48 50 51 46 46 51 53 50 51 51 50 51 47 44
13 15 19 24 24 29 28 28 32 37 41 44 46 43 43 50 49 55 55 54 42 42 46 46 46 41 43 45 45 45 44 41
15 20 25 26 24 21 26 36 44 43 46 49 48 45 43 44 45 45 41 40 45 47 46 39 42 45 49 47 46 42 33 31
18 22 24 25 24 31 37 45 43 46 52 46 40 40 42 44 44 42 42 47 41 49 49 52 41 42 40 41 40 36 29 27
22 25 30 32 36 41 44 41 44 49 43 40 40 41 42 42 45 44 44 47 48 50 50 31 37 37 37 36 30 29 30 32
25 27 30 37 43 45 45 46 47 39 39 38 38 40 41 43 46 50 48 42 43 44 35 29 36 37 40 27 28 32 33 34
26 30 41 47 48 46 47 46 40 39 38 38 41 43 43 42 43 43 39 38 45 35 27 33 36 38 34 31 33 35 36 40
30 39 44 45 46 47 44 41 41 40 40 42 44 44 43 39 38 42 45 44 43 39 29 35 37 37 33 34 36 37 41 45
39 41 43 46 46 43 41 41 41 41 43 44 42 44 44 40 39 41 41 34 36 29 31 35 35 33 34 35 36 40 44 45
41 43 44 43 40 41 41 41 41 43 45 45 43 44 42 38 36 34 30 25 21 26 31 32 34 34 35 35 39 42 44 44
43 41 39 39 40 40 43 43 44 45 46 46 42 42 38 36 34 28 24 24 22 26 28 33 35 34 34 37 40 44 44 43

GFSFLT1_700_spd_009.txt.gz
Wind_Speed
17 13 12 12 11 17 21 21 22 20 12 27 14 15 15 20 26 30 31 31 34 36 36 40 45 50 51 51 51 50 47 47
17 17 14 14 16 20 19 21 23 23 18 17 13 15 23 26 30 30 32 34 35 41 41 47 48 50 53 53 49 45 44 46
17 17 15 16 17 16 17 21 20 14 15 14 19 23 26 28 30 30 33 37 39 42 44 46 51 52 52 49 46 46 46 49
10 10 11 12 17 20 17 13 11 14 16 19 21 22 24 26 29 31 35 38 42 44 48 53 53 51 49 48 46 47 49 49
6 9 12 13 10 11 13 11 13 15 15 15 17 20 24 28 32 36 40 43 46 49 53 51 55 48 41 44 45 46 46 46
7 10 13 14 15 18 19 18 17 15 20 24 27 32 37 39 42 45 47 49 53 58 46 51 46 42 42 39 42 46 49 51
9 6 10 5 11 14 14 17 21 28 32 34 39 42 45 48 51 53 52 54 51 50 44 52 58 47 42 44 45 46 47 48
15 18 13 13 16 16 18 25 28 33 36 41 45 48 48 50 53 51 49 46 54 57 48 51 50 53 48 48 51 44 43 44
26 18 15 15 18 20 23 30 34 34 38 43 47 47 49 49 46 48 51 51 49 50 44 40 48 33 42 46 44 44 43 45
21 19 17 18 21 24 28 34 34 37 42 47 47 48 49 47 47 49 50 48 43 41 40 45 40 43 44 43 35 39 46 45
22 21 21 22 24 27 28 33 41 44 45 45 46 48 46 47 48 47 46 45 46 43 42 41 49 53 41 33 37 40 40 34
24 24 24 26 24 26 33 40 40 41 43 47 46 44 44 44 46 48 48 47 45 47 45 42 44 42 35 35 37 37 32 29
26 27 25 25 27 31 43 41 40 42 44 42 42 43 45 46 47 46 47 47 44 35 33 36 38 33 31 35 38 34 32 33
26 26 29 32 34 39 40 40 40 39 41 43 43 46 48 46 45 45 45 43 43 42 44 40 30 30 35 37 35 34 33 34
26 27 31 34 39 41 41 39 39 42 42 43 44 47 48 48 48 46 42 39 38 37 30 25 27 28 35 36 35 35 34 36
26 29 35 38 39 39 38 40 42 42 42 43 45 48 49 49 46 44 39 38 35 30 28 23 23 32 33 35 35 35 36 40
35 38 42 38 39 38 40 41 41 42 43 45 47 49 48 47 46 42 39 34 29 22 23 25 31 29 34 36 35 36 39 41
36 39 40 40 38 40 41 41 42 44 46 48 49 49 48 47 43 38 35 31 26 21 27 25 25 30 37 36 35 37 39 43
40 41 42 37 39 40 40 42 46 48 50 51 50 49 46 43 39 36 32 29 22 22 24 25 29 34 38 36 35 37 39 42

GFSFLT1_700_spd_012.txt.gz
Wind_Speed
13 10 11 11 12 13 19 23 23 22 14 20 17 17 15 16 18 24 29 29 33 35 34 39 45 46 47 51 51 53 55 56
16 17 15 14 14 16 18 20 21 23 16 15 13 14 16 21 26 27 28 29 34 39 42 45 47 49 50 53 56 55 53 54
18 18 18 15 16 17 16 17 17 14 12 13 14 18 23 24 26 28 31 34 37 40 43 46 48 51 55 57 52 53 50 49
2 5 9 13 17 18 18 17 17 18 17 18 20 22 23 25 28 33 35 38 41 45 48 51 54 54 56 52 51 53 49 51
3 9 5 7 13 12 14 17 19 19 16 16 21 25 29 33 37 42 45 48 51 53 55 56 53 54 55 54 55 54 53 42
15 6 7 22 20 13 11 12 11 14 21 25 30 33 37 41 45 46 48 51 54 54 55 53 53 57 52 53 53 49 46 43
10 3 11 15 10 15 13 15 18 20 25 31 36 39 41 45 48 47 50 53 52 51 50 50 47 46 44 45 47 51 42 42
9 10 25 9 16 17 18 20 23 27 32 34 38 41 44 45 45 47 49 48 48 48 49 49 50 48 44 46 50 42 41 42
19 25 18 20 20 21 21 23 25 28 33 40 44 45 45 46 47 48 48 49 49 50 50 49 48 41 45 43 52 47 41 35
24 17 20 24 24 23 24 22 24 30 39 45 45 46 47 47 48 48 47 47 47 48 48 44 32 45 36 38 42 34 36 37
20 22 24 27 28 28 29 27 28 34 40 44 45 44 43 45 45 44 45 45 45 46 44 35 38 39 37 40 33 31 35 37
23 25 28 29 32 31 29 32 35 39 41 42 41 43 43 43 44 44 44 44 44 44 43 41 39 39 37 34 27 33 37 37
26 28 31 30 29 27 31 36 39 38 39 39 41 43 45 45 45 46 46 45 43 41 39 39 36 32 29 31 29 34 38 37
26 27 28 30 33 35 37 41 34 34 37 40 43 45 46 47 48 48 46 43 41 38 37 33 29 27 30 29 30 36 38 36
26 27 28 30 37 37 39 28 33 37 40 43 45 46 48 49 49 48 46 43 40 37 33 28 27 26 27 29 33 35 37 35
27 28 32 38 39 35 33 33 37 40 42 44 46 48 49 50 50 47 45 42 38 34 29 28 22 26 27 32 32 36 36 36
28 33 36 40 36 36 33 36 39 41 43 46 48 50 51 51 48 46 44 39 35 31 27 22 26 26 28 30 33 35 35 37
31 36 38 35 36 34 34 37 40 42 45 47 50 52 51 49 46 44 40 36 31 28 22 23 24 27 28 32 35 34 35 36
33 36 34 36 32 33 36 38 40 44 47 49 51 51 49 47 44 40 35 32 29 26 24 24 26 28 31 34 32 32 32 34

GFSFLT1_700_spd_015.txt.gz
Wind_Speed
10 9 9 8 10 12 13 19 21 20 21 13 11 8 9 12 15 19 25 30 32 32 34 37 38 40 44 47 49 52 53 56
14 14 13 15 16 14 15 17 19 20 19 16 14 11 13 18 21 24 26 27 29 31 34 37 39 43 45 48 49 51 51 53
15 16 18 22 16 12 13 15 16 17 16 17 14 14 17 21 23 25 28 31 35 38 40 43 47 49 51 53 52 52 54 54
8 4 3 4 3 7 10 11 10 10 11 13 13 19 22 24 26 30 34 37 40 41 44 47 50 52 53 54 55 54 53 52
5 1 2 8 7 5 7 10 12 12 12 13 17 20 24 29 33 36 39 42 43 45 47 48 49 50 50 50 49 47 46 45
6 4 4 4 11 16 18 16 13 11 12 17 22 26 31 35 38 40 42 44 45 46 47 48 47 47 46 45 43 43 42 41
7 9 5 14 18 14 16 18 17 17 19 23 26 30 35 39 40 41 43 44 44 46 47 47 45 44 44 44 41 40 44 45
11 8 14 17 12 13 18 19 21 22 23 26 30 33 37 40 42 42 43 43 43 44 45 44 44 44 42 43 38 43 45 43
10 11 17 12 14 19 22 24 27 26 25 29 33 37 41 43 43 43 43 43 43 43 43 44 44 43 42 34 43 43 43 40
13 16 15 17 19 22 25 28 30 31 32 35 39 44 40 41 42 41 41 42 43 42 42 42 41 40 38 37 40 34 28 29
16 18 19 22 23 26 29 33 33 34 37 38 41 35 38 39 40 41 41 42 42 42 42 40 38 37 34 32 30 29 30 32
20 21 24 26 28 30 36 37 31 37 38 39 35 36 38 41 42 42 43 44 43 41 41 39 36 35 31 28 30 30 33 31
25 25 27 30 31 36 41 34 39 40 39 33 35 39 42 43 44 45 46 45 43 41 40 36 34 31 27 27 27 29 32 33
27 27 28 31 34 37 36 39 39 34 30 34 38 41 43 44 46 47 48 46 43 40 37 34 30 26 25 26 25 29 32 36
28 27 29 32 34 37 34 42 32 30 34 36 40 42 44 46 48 49 48 45 43 40 36 31 27 26 25 25 28 29 32 34
28 28 28 32 36 35 40 34 32 32 34 37 41 44 46 48 49 48 46 44 40 37 33 29 25 22 22 27 28 30 32 35
28 27 32 30 34 35 35 34 31 33 35 38 42 45 47 49 48 46 44 41 38 35 30 26 22 21 26 26 28 31 34 33
26 28 27 32 33 35 35 31 31 34 36 40 43 46 49 49 46 44 43 39 36 33 29 26 24 24 24 28 30 32 31 31
23 26 30 32 35 36 29 29 32 34 38 41 44 48 49 47 44 43 41 37 33 30 27 25 24 23 25 28 28 28 29 29

GFSFLT1_700_spd_018.txt.gz
Wind_Speed
13 11 11 12 14 15 16 20 22 20 19 18 11 9 8 9 11 15 18 22 25 28 31 34 37 39 41 42 45 47 47 50
14 13 14 14 15 14 15 17 19 18 14 14 10 9 9 11 13 17 19 22 26 29 33 35 36 39 42 45 46 47 49 49
18 18 19 20 21 20 17 14 14 12 11 11 13 10 10 13 16 19 23 27 31 34 35 38 40 42 45 47 47 47 47 52
16 15 11 10 11 9 5 7 9 10 10 9 7 10 12 16 21 26 30 33 36 38 39 40 42 44 45 46 47 47 45 47
14 11 10 8 7 1 9 12 8 8 8 10 10 14 19 22 28 31 35 38 39 40 42 43 44 43 44 45 45 43 46 44
14 15 11 7 4 11 12 11 16 16 15 16 18 22 25 28 31 34 38 39 40 42 43 44 44 43 43 42 44 44 43 42
19 15 10 4 12 7 10 12 15 16 19 22 24 28 31 33 35 39 38 38 41 42 45 42 42 41 42 42 41 38 35 33
16 11 9 7 10 10 12 16 17 20 23 26 30 33 33 34 38 39 39 40 40 39 39 40 40 40 40 41 41 39 38 39
16 13 12 11 10 14 17 19 22 26 28 30 33 32 34 37 37 38 39 39 39 39 39 39 39 39 41 40 37 39 37 35
18 15 15 14 15 19 22 25 28 34 34 36 28 34 40 39 36 37 38 38 40 41 40 39 39 38 36 32 31 35 33 31
22 20 17 18 21 23 26 30 33 37 35 33 34 40 36 35 35 37 38 39 41 41 41 41 38 31 26 31 34 29 30 30
24 23 22 23 26 28 30 33 37 40 37 38 42 35 33 34 37 39 41 42 42 42 41 39 38 36 33 28 26 28 29 27
27 26 27 28 30 29 33 37 40 42 33 37 34 32 34 37 40 41 43 44 44 43 41 39 37 35 27 25 26 30 28 26
30 30 31 33 33 31 37 40 40 33 33 32 35 36 37 39 41 43 45 46 45 44 41 40 37 30 27 25 29 27 26 30
33 34 35 36 33 36 39 40 34 32 33 36 35 36 38 39 41 45 46 46 44 42 40 38 34 30 27 23 22 25 28 30
32 34 35 34 34 36 40 32 32 34 37 33 34 36 38 40 43 46 46 44 43 42 39 35 30 27 24 22 24 28 28 32
27 30 32 33 33 37 33 33 35 37 33 32 33 36 38 41 44 46 45 43 42 40 36 28 24 25 25 25 24 26 29 32
24 27 30 31 34 34 36 32 36 32 30 31 34 37 39 42 45 45 43 42 40 37 32 22 25 27 24 23 23 26 28 30
23 27 29 31 34 37 30 32 30 27 29 32 35 37 40 43 44 43 41 39 36 35 29 26 25 24 24 24 24 25 27 28

GFSFLT1_700_spd_021.txt.gz
Wind_Speed
15 15 15 14 15 16 15 18 20 21 22 19 15 6 6 9 10 11 14 16 19 22 26 28 31 35 38 41 43 44 46 49
18 18 17 18 18 20 17 18 18 23 15 16 11 8 8 10 11 14 16 18 21 24 29 33 36 37 41 43 45 45 46 46
21 21 20 20 20 22 20 19 16 14 15 14 11 10 11 13 14 15 18 23 27 31 33 37 39 40 42 44 46 46 45 44
22 22 22 22 22 21 19 13 10 11 13 11 12 13 14 15 17 22 24 28 32 36 40 40 40 42 43 44 46 45 43 44
21 19 19 17 15 11 9 9 8 7 10 12 12 11 12 18 24 29 31 36 37 39 39 41 41 41 43 43 42 45 43 44
17 17 19 17 13 12 10 9 8 9 12 14 16 18 21 27 30 34 38 38 40 41 41 43 44 41 41 42 43 41 43 43
20 23 21 16 14 11 11 11 13 15 17 20 22 24 28 31 34 35 39 42 39 39 40 40 40 40 40 41 43 41 41 40
25 24 20 17 16 14 15 16 17 18 21 25 28 30 34 40 30 38 41 38 38 39 39 38 37 38 39 40 41 37 26 35
25 24 22 20 18 15 18 20 21 23 26 30 33 33 38 33 37 34 35 36 38 38 38 39 39 39 39 41 33 24 32 38
26 25 24 23 21 18 19 22 24 26 30 33 34 37 37 38 34 34 36 37 37 39 40 41 41 40 37 29 28 30 37 42
26 27 26 25 24 23 23 25 27 28 32 36 38 40 38 38 37 34 36 36 39 40 41 40 39 39 38 28 28 29 31 36
25 29 28 28 29 28 28 30 32 31 37 39 38 41 36 33 33 36 38 39 41 42 41 42 41 38 34 31 22 26 31 32
24 30 30 31 32 32 34 35 36 34 40 39 42 34 33 33 35 39 40 40 41 42 42 44 42 36 34 31 24 28 29 28
27 32 31 35 35 36 38 39 39 38 40 42 36 35 33 34 36 38 40 41 42 43 44 43 42 39 34 29 24 25 26 25
28 34 35 36 38 39 41 42 41 41 42 36 33 33 33 34 36 38 40 42 43 43 43 42 36 35 26 23 23 25 27 26
32 35 36 38 41 43 42 42 41 40 42 33 32 33 34 35 37 38 41 43 44 44 42 38 35 24 28 28 29 24 24 25
28 31 34 36 40 41 40 39 41 41 40 35 32 30 31 35 37 38 42 43 44 43 40 36 31 24 28 30 27 24 26 28
25 27 30 34 38 39 38 39 43 42 41 34 28 29 32 35 36 39 41 42 42 39 37 35 30 28 24 25 24 25 26 27
21 25 30 34 37 40 38 42 43 47 43 38 25 29 32 34 37 39 40 40 38 36 35 34 29 28 23 24 24 25 26 27

GFSFLT1_700_spd_024.txt.gz
Wind_Speed
13 11 10 10 15 11 8 13 12 14 16 18 17 13 11 10 12 11 13 14 15 18 20 24 27 31 35 39 41 41 41 42
12 12 14 11 17 16 12 16 14 15 19 16 12 11 11 12 11 13 16 16 16 19 25 29 32 34 38 42 43 43 43 43
17 17 18 19 24 21 19 18 20 18 18 16 12 13 15 14 12 16 17 18 20 27 29 32 34 38 39 41 41 43 42 41
25 23 22 24 28 27 24 23 18 16 15 10 12 15 13 17 19 18 18 22 28 32 37 39 42 39 38 39 40 42 42 38
29 24 26 27 28 25 22 17 14 13 11 12 13 17 21 23 24 25 28 27 28 36 39 41 40 37 37 38 39 39 39 40
29 26 22 23 24 22 18 16 16 14 15 14 15 20 22 23 27 29 32 29 37 38 39 37 37 38 39 37 38 38 37 39
31 22 22 23 20 20 17 17 15 16 16 17 20 21 26 29 31 34 39 32 32 35 35 35 36 37 37 38 38 38 39 41
26 27 25 21 22 19 19 18 18 18 18 20 22 25 29 32 34 38 42 33 34 34 34 35 36 36 36 37 35 38 36 33
22 23 23 24 23 21 20 20 20 21 21 22 23 27 32 34 35 40 43 39 36 36 34 36 38 37 37 37 38 38 27 27
23 24 25 25 25 24 24 24 24 24 25 24 27 30 33 35 38 38 39 37 35 35 36 38 38 38 40 41 37 32 27 31
21 25 28 28 28 27 27 29 29 27 27 29 32 32 35 35 41 37 37 34 33 35 38 39 40 40 39 38 37 31 29 27
22 25 28 30 30 30 30 32 34 32 32 33 36 37 38 40 37 37 35 32 35 37 39 40 40 42 42 41 35 34 30 27
25 26 29 31 31 32 32 33 35 35 36 37 39 40 40 42 39 37 36 35 37 39 39 40 40 41 40 35 34 29 25 25
24 30 34 35 34 34 34 34 36 39 38 39 40 42 43 34 37 36 35 35 38 38 39 40 41 38 37 38 30 25 27 27
24 31 36 40 41 38 36 37 38 41 40 38 41 43 46 36 34 34 32 35 37 39 40 40 39 36 34 32 29 28 29 26
23 29 35 37 43 42 38 39 41 42 37 39 41 43 46 38 37 34 35 34 37 40 41 41 38 35 33 29 29 30 31 29
24 29 33 39 43 40 37 40 43 41 38 39 41 44 29 37 34 29 30 34 38 39 40 39 37 34 28 27 24 26 27 28
19 28 28 30 32 35 38 41 41 38 40 41 44 34 40 30 28 29 29 33 37 37 37 36 35 35 30 25 24 25 27 28
18 19 22 26 29 34 37 38 41 37 40 44 45 43 32 23 27 28 30 34 37 35 35 33 33 33 30 26 24 27 28 29

GFSFLT1_700_spd_027.txt.gz
Wind_Speed
8 9 7 3 4 6 6 6 7 9 10 12 13 13 10 11 10 12 16 18 18 19 18 17 20 26 28 31 37 37 36 36
8 9 11 9 8 8 6 6 10 11 13 15 14 14 12 12 10 13 16 17 19 19 20 24 28 31 33 36 37 35 35 35
12 16 19 14 15 11 12 11 12 17 20 18 17 15 12 10 14 15 16 16 17 19 20 26 30 32 35 35 35 35 35 34
16 16 20 20 20 19 15 18 18 22 22 21 16 12 11 14 15 13 16 19 22 24 26 31 31 33 31 30 33 34 35 34
23 22 22 24 26 26 19 22 24 24 20 18 17 17 16 17 17 18 20 24 27 35 32 31 33 33 32 32 32 35 35 36
27 30 30 27 30 26 26 25 24 19 19 17 16 17 20 20 24 25 26 29 30 38 40 35 37 34 34 36 35 34 35 36
28 32 35 35 27 22 28 24 20 17 16 16 16 19 21 22 26 27 29 32 36 41 41 36 34 34 35 36 34 36 38 39
32 36 39 39 27 22 21 19 18 16 16 18 19 21 22 25 28 29 31 32 39 40 37 38 37 35 35 36 34 34 36 36
39 42 43 36 22 21 22 21 19 16 16 20 23 24 27 28 30 30 31 35 42 36 37 39 38 33 36 37 35 35 36 36
31 34 29 23 20 22 26 24 22 21 18 20 25 28 31 32 34 34 34 37 37 37 37 37 35 33 35 36 38 38 35 33
22 22 23 22 20 24 29 29 27 26 24 25 25 28 31 33 36 38 45 35 34 34 35 35 35 34 36 37 36 35 34 33
18 18 20 20 19 21 28 32 32 30 28 29 31 33 35 36 41 43 41 44 35 33 33 34 33 33 36 35 34 33 33 29
24 23 22 23 23 20 21 27 32 35 33 33 35 37 37 39 42 43 44 39 36 36 33 36 32 34 36 37 34 31 29 28
25 27 29 27 28 29 31 33 34 34 35 36 37 38 39 42 44 40 49 36 37 40 34 31 33 36 34 34 36 34 29 29
23 27 30 31 33 35 34 39 40 40 38 36 34 36 40 41 41 46 33 34 36 32 31 31 34 37 35 31 30 32 31 30
17 28 29 31 33 35 37 38 41 42 39 36 34 38 39 44 38 38 40 38 30 32 33 29 35 37 36 31 31 31 28 28
20 19 24 27 31 34 36 38 40 40 39 37 38 41 44 44 47 45 36 29 28 34 27 31 35 37 37 29 30 29 27 27
19 22 28 31 33 33 35 37 36 36 38 40 44 47 49 50 48 41 36 29 32 27 28 31 35 37 34 29 28 28 26 27
19 19 19 24 28 30 31 31 33 36 40 44 49 53 54 56 49 37 31 28 24 28 31 34 36 34 31 28 28 28 28 28

GFSFLT1_700_spd_030.txt.gz
Wind_Speed
7 12 15 13 11 10 8 7 6 3 7 6 8 10 11 10 11 13 14 16 16 16 19 20 22 24 28 33 33 34 36 35
5 5 7 9 11 9 8 7 9 8 8 10 10 12 15 13 12 14 15 16 16 18 19 21 25 26 31 31 34 34 34 33
10 8 9 8 7 7 10 9 10 11 13 14 15 15 15 15 14 12 13 16 18 19 20 24 26 34 33 32 36 35 35 34
14 14 12 13 12 12 12 11 14 15 17 19 19 16 15 14 12 10 11 13 16 18 22 24 31 31 34 39 35 35 35 35
19 20 19 17 16 17 17 16 17 22 21 22 18 16 16 13 12 11 12 14 17 20 25 30 34 36 35 35 36 35 36 36
23 24 23 22 20 20 17 23 23 27 25 19 17 15 16 14 13 14 17 20 23 26 29 35 38 38 37 38 37 39 40 38
28 27 25 23 22 25 25 28 27 29 21 16 15 16 17 16 17 20 23 26 29 30 30 35 39 36 37 39 39 40 40 38
27 30 28 28 28 28 25 27 25 19 16 17 17 18 20 22 25 27 29 32 31 36 34 38 35 38 41 40 40 40 40 39
24 24 27 29 27 24 26 28 20 16 18 18 20 23 25 28 31 32 33 35 37 40 38 39 39 39 41 42 40 41 42 40
28 27 31 26 25 29 29 27 22 20 20 21 25 28 29 31 34 35 37 39 40 41 51 41 43 41 40 40 40 43 40 36
17 21 24 25 24 25 26 25 23 23 23 25 28 31 32 34 36 38 40 40 49 47 46 47 48 39 39 40 36 36 34 34
13 12 11 12 15 17 17 18 19 23 26 29 33 35 35 36 38 40 43 43 50 48 43 47 43 39 40 35 35 32 34 35
15 14 14 15 15 17 16 15 16 17 20 23 25 28 34 36 39 42 43 46 46 52 47 44 43 33 37 42 37 34 32 33
14 18 19 20 20 21 23 23 24 26 27 28 30 31 30 33 37 40 43 45 49 51 49 47 41 43 36 29 30 32 36 35
18 21 22 23 24 25 25 27 29 29 28 30 32 31 33 34 38 42 46 48 53 53 45 42 43 39 28 28 31 35 34 34
17 20 24 27 30 31 32 34 30 30 30 31 31 32 38 40 43 48 50 53 54 51 44 40 43 30 28 31 33 33 33 32
14 17 21 22 27 28 28 29 28 30 29 29 31 38 42 45 48 51 55 58 56 44 41 43 31 28 31 34 33 31 32 32
19 19 21 22 22 23 25 25 28 31 30 32 37 41 46 48 51 56 60 50 39 37 37 26 26 31 34 36 34 32 31 31
20 20 21 21 24 23 29 30 29 33 35 38 42 44 46 51 59 57 43 34 34 32 25 24 30 33 34 33 32 31 31 31

GFSFLT1_700_spd_033.txt.gz
Wind_Speed
14 13 14 14 13 13 11 8 7 6 8 5 5 5 6 8 9 12 15 16 17 18 18 18 21 24 24 28 32 34 37 36
11 11 9 9 8 8 8 6 6 6 5 6 7 8 10 11 12 14 14 14 16 17 18 21 24 26 28 34 37 41 42 41
7 9 12 11 9 8 9 7 8 7 8 9 11 13 13 13 15 15 13 14 14 16 18 21 24 29 32 35 35 36 38 39
3 5 3 6 8 8 9 11 11 12 12 14 16 14 14 13 13 12 14 15 15 15 18 23 28 30 32 36 35 35 36 38
14 10 11 10 5 6 10 14 15 15 17 18 18 16 15 12 14 15 16 15 16 20 23 26 31 38 34 35 34 35 37 39
18 16 14 12 13 12 11 15 15 17 21 22 21 18 16 16 16 17 18 19 22 26 30 33 37 41 41 45 37 39 39 41
22 22 20 19 18 17 14 17 17 17 22 24 24 19 15 19 19 21 22 26 29 32 36 39 42 40 41 46 44 42 42 42
22 26 26 22 20 21 18 20 20 21 21 21 19 19 20 22 25 28 30 31 34 39 40 41 41 42 49 45 42 42 43 44
19 19 21 23 22 22 21 21 20 24 25 20 21 23 23 26 31 32 32 35 41 40 46 41 41 55 45 48 45 44 42 41
16 16 20 20 23 25 22 22 23 27 23 24 24 23 26 30 30 33 35 42 45 40 46 49 47 50 49 44 45 45 47 47
19 11 10 13 18 23 22 26 26 22 21 22 26 25 25 29 32 36 39 42 44 44 46 44 51 53 54 51 43 46 45 45
13 10 5 6 7 8 10 14 15 13 13 14 17 19 22 25 30 35 38 38 40 41 44 47 51 51 53 46 42 45 44 40
8 6 8 10 10 11 13 15 13 14 17 20 20 23 26 25 27 29 33 37 39 41 45 48 50 50 47 42 44 41 38 35
7 8 14 16 18 18 18 19 19 20 23 25 23 25 27 26 29 33 36 36 39 43 48 51 51 48 39 41 39 32 33 36
14 17 18 21 23 26 27 27 27 27 30 28 26 26 28 31 32 38 41 41 46 49 51 53 51 38 39 39 31 32 33 36
15 17 20 22 26 28 29 30 30 30 28 30 28 28 31 31 36 38 44 48 54 55 55 51 38 43 37 29 31 34 37 38
17 18 19 22 24 24 28 28 26 25 28 30 28 29 33 37 38 43 50 53 53 53 45 36 43 39 28 29 34 37 37 36
16 17 19 22 21 16 18 20 21 24 28 31 32 35 38 41 48 52 54 57 55 46 38 41 39 28 29 32 36 36 35 35
16 17 18 19 20 23 24 24 21 23 27 32 36 37 42 47 52 57 61 52 42 37 42 35 31 28 32 33 33 34 35 35

GFSFLT1_700_spd_039.txt.gz
Wind_Speed
19 17 20 20 20 20 18 18 17 18 18 17 15 13 12 11 12 12 11 11 12 12 14 14 14 14 15 18 21 24 27 28
19 20 19 18 18 18 18 17 17 17 14 12 10 8 8 9 9 10 12 12 13 13 15 15 15 17 19 21 23 26 30 33
18 16 16 15 15 15 15 15 14 12 12 11 11 9 9 11 11 12 13 15 15 15 16 17 18 19 20 23 26 30 33 37
13 12 12 13 12 10 11 12 12 12 13 14 13 12 11 10 8 11 15 17 17 17 18 19 21 22 24 28 31 35 38 40
14 14 14 11 11 11 10 11 13 14 15 16 12 11 12 13 16 17 18 20 21 20 21 23 24 27 29 33 35 36 44 46
17 14 13 10 11 10 11 13 15 18 17 15 14 13 17 18 21 23 23 22 25 23 23 25 28 31 33 36 41 46 35 41
19 18 18 17 15 15 17 18 19 18 20 16 15 15 16 19 24 25 24 25 26 27 27 28 30 33 39 41 46 37 36 43
23 22 20 18 20 19 18 20 20 17 28 21 21 21 21 22 25 27 26 26 27 27 30 31 35 33 35 37 41 40 42 40
21 22 24 22 21 21 21 21 19 27 16 22 22 23 25 24 26 23 24 25 25 28 28 29 33 33 34 37 42 41 46 40
15 18 21 23 22 21 22 18 16 28 29 17 21 25 27 24 24 24 21 23 23 24 27 31 33 36 36 38 42 44 37 41
9 11 14 16 17 18 20 22 19 20 19 20 22 22 22 20 21 22 21 24 28 26 29 32 35 37 34 45 47 43 40 45
7 9 10 11 14 18 20 20 19 14 16 17 17 16 18 19 20 23 24 24 21 27 31 32 37 38 39 43 43 49 40 34
3 5 5 7 6 7 8 10 9 10 12 14 17 20 23 27 24 21 19 24 28 27 31 32 38 39 49 48 50 42 34 38
4 4 6 6 6 7 9 14 14 14 17 21 24 25 27 25 25 23 29 29 32 35 37 39 37 42 49 53 45 35 36 39
13 11 11 12 12 13 17 20 19 19 22 25 28 27 27 27 26 26 30 34 27 34 40 41 47 48 50 49 35 37 39 38
17 17 17 18 18 20 19 19 21 24 28 32 33 32 30 30 30 29 31 32 35 34 47 48 50 52 48 38 41 40 41 35
20 21 21 21 21 22 22 22 24 28 30 30 31 31 31 30 29 29 32 35 36 44 53 57 50 39 41 38 40 42 35 35
21 21 21 21 20 20 21 24 26 27 28 29 28 29 28 27 27 30 32 42 40 53 48 41 37 39 37 37 39 39 33 33
17 17 17 18 19 22 25 27 27 26 25 24 25 26 28 30 31 31 37 32 37 33 38 36 38 37 34 36 34 36 34 35

GFSFLT1_700_spd_042.txt.gz
Wind_Speed
14 13 15 17 18 17 16 17 19 18 19 21 21 22 21 19 19 18 18 17 16 14 14 13 14 14 15 15 16 18 22 24
15 15 16 17 17 18 17 17 17 17 16 16 16 15 15 15 15 17 18 17 15 15 14 14 14 16 16 17 19 22 24 26
18 19 19 18 17 17 16 16 15 15 16 16 16 15 15 17 17 17 18 18 17 17 17 17 16 18 19 20 23 25 27 29
18 15 16 16 15 15 16 17 18 18 18 18 18 17 15 13 15 17 17 18 19 21 22 21 20 20 22 24 26 29 31 34
17 17 16 15 15 17 18 19 18 18 19 18 18 17 15 15 15 18 20 20 21 25 25 24 23 24 25 25 28 31 34 38
16 16 18 17 18 17 17 18 20 20 20 20 19 19 19 19 19 23 24 25 25 25 24 26 25 25 27 28 30 34 36 34
21 21 23 20 20 20 21 21 21 22 24 22 21 22 24 21 20 20 23 26 27 26 26 27 26 25 28 31 33 33 34 35
26 25 24 24 23 21 20 21 20 23 27 16 21 27 25 25 24 24 25 25 27 27 28 26 25 29 27 32 35 34 41 40
29 31 29 28 26 24 23 22 21 22 24 26 26 20 26 28 30 29 29 27 25 26 25 24 26 24 31 34 35 36 36 39
25 26 29 31 32 30 27 25 26 23 25 32 24 20 23 27 28 30 30 29 28 26 25 26 26 33 34 36 40 36 38 39
20 23 26 28 30 30 28 27 27 26 25 28 20 22 25 26 26 26 28 29 29 27 29 32 30 31 35 34 38 45 36 44
11 15 19 24 26 28 27 29 30 30 29 26 21 20 23 22 23 25 26 31 35 32 32 28 33 32 35 39 40 46 46 42
6 8 11 15 20 21 21 24 25 26 27 24 18 19 21 23 26 29 31 29 28 24 27 30 33 36 37 36 44 50 44 35
10 9 11 11 11 11 12 14 14 15 18 18 21 23 24 26 28 29 29 29 33 25 30 34 39 38 39 41 50 53 36 38
15 15 15 14 13 13 13 16 17 18 21 23 25 26 29 31 31 31 31 32 30 34 34 33 41 50 43 52 47 37 41 39
15 20 20 20 20 20 22 23 23 23 24 25 27 29 31 32 33 33 32 32 34 35 35 36 38 38 42 42 38 39 38 39
19 21 23 22 22 23 21 23 25 26 26 27 29 31 30 31 33 34 34 31 32 32 34 31 27 30 32 33 36 38 37 36
19 20 24 26 24 24 24 23 22 24 26 28 30 31 31 31 31 32 30 27 33 34 34 36 35 31 32 35 35 35 35 33
22 23 21 20 20 20 20 22 25 27 28 27 26 27 28 30 32 33 33 34 35 34 33 31 31 33 31 30 32 33 34 35

GFSFLT1_700_spd_045.txt.gz
Wind_Speed
9 8 6 11 16 19 20 23 23 21 21 18 19 22 22 22 21 20 20 21 21 19 18 17 16 16 16 16 15 17 20 21
8 11 13 13 13 16 19 20 20 19 18 20 20 20 20 20 20 21 21 22 21 20 22 17 17 18 17 16 18 19 21 23
13 14 15 15 15 16 17 17 17 16 16 17 17 17 16 16 18 18 19 20 20 21 23 19 19 20 20 20 21 22 26 25
15 15 17 13 14 14 15 16 17 17 16 17 18 18 18 18 18 17 18 20 20 22 24 23 23 25 24 24 24 25 28 29
16 16 17 17 16 17 17 17 17 18 19 18 19 18 19 18 18 18 19 21 22 24 25 26 27 27 28 27 27 26 27 34
19 16 15 16 18 17 17 17 18 20 21 22 24 24 23 22 23 22 20 23 24 27 28 26 27 27 29 29 28 25 29 33
20 19 18 19 18 18 18 19 20 22 23 25 23 22 22 25 27 22 22 24 24 27 31 31 30 28 31 29 30 31 30 33
24 24 24 24 23 23 22 22 23 24 28 24 25 24 24 33 34 29 28 26 25 25 28 30 31 31 29 27 30 25 35 36
27 27 27 27 27 26 25 24 24 26 30 30 22 28 20 24 23 21 21 28 29 30 31 31 30 28 28 26 26 36 37 37
26 29 29 29 29 31 29 28 27 29 31 30 23 25 20 24 22 24 26 28 29 31 30 29 30 29 29 31 34 35 37 42
18 24 28 29 30 31 35 34 32 31 28 27 23 20 23 24 26 27 29 27 27 27 29 31 32 39 35 32 32 34 37 39
7 13 21 26 29 30 34 33 31 31 32 30 29 25 25 25 26 27 26 28 28 28 30 32 34 35 28 28 37 39 40 37
6 10 14 19 22 24 24 23 24 25 31 29 28 29 27 24 24 24 27 29 30 31 33 34 31 36 29 33 44 46 48 43
12 13 15 18 19 21 23 24 24 24 26 24 23 23 23 24 25 28 29 31 32 35 34 35 38 33 36 38 45 43 45 41
13 14 18 19 18 18 18 19 20 19 18 18 21 22 25 27 29 31 33 34 35 35 35 37 29 33 36 39 44 38 44 39
19 18 21 23 22 22 22 21 21 20 20 21 21 24 28 31 32 33 35 36 35 33 29 33 34 36 32 33 39 39 38 38
20 23 24 27 28 27 26 25 23 23 25 27 29 30 32 33 33 32 34 34 34 34 34 36 39 38 39 39 36 38 39 38
20 21 25 27 30 30 29 27 28 28 29 31 30 30 31 33 34 32 31 32 34 35 35 37 39 38 37 34 35 34 35 37
24 21 20 23 27 28 26 24 23 24 25 28 31 31 31 30 31 32 34 35 36 36 34 34 32 31 31 30 33 35 38 37

GFSFLT1_700_spd_048.txt.gz
Wind_Speed
5 10 11 17 22 30 30 26 23 28 32 41 42 34 29 19 17 19 20 21 23 21 18 16 14 17 17 16 18 17 18 18
9 8 10 12 15 20 20 20 20 21 23 23 22 22 19 19 20 20 22 24 22 20 19 19 17 20 18 17 18 20 19 21
6 8 14 17 15 18 18 17 18 18 17 17 19 19 19 19 21 22 22 18 19 19 21 21 18 23 22 20 19 21 24 23
7 8 10 12 18 20 21 20 19 19 19 18 18 19 20 21 20 18 16 17 18 19 20 23 22 24 27 24 24 25 26 28
11 9 9 11 12 15 16 18 18 18 19 19 17 17 18 17 17 17 19 20 20 21 21 25 27 25 28 26 27 28 28 33
12 13 11 9 9 10 12 15 17 17 19 18 20 21 18 17 16 17 20 20 22 23 23 25 26 29 30 30 28 29 30 31
17 14 15 16 15 15 14 14 14 15 17 19 19 19 18 19 19 24 28 23 26 26 24 24 24 26 31 34 31 32 31 28
24 22 21 20 20 19 19 18 18 18 19 20 20 18 21 22 25 25 31 31 30 20 24 26 25 28 29 29 32 32 29 31
25 24 24 23 22 21 20 20 21 23 25 27 24 18 19 19 26 22 26 20 10 19 24 27 31 33 29 32 31 32 30 35
23 25 27 27 23 25 25 24 24 27 28 28 25 21 23 21 21 23 23 25 19 20 25 26 27 27 29 30 32 35 34 32
19 25 27 31 30 29 26 28 29 30 32 32 30 34 22 20 20 19 24 26 22 24 23 25 25 27 30 27 30 35 31 32
13 23 22 32 33 32 35 30 33 36 38 33 30 28 27 23 24 22 23 24 25 26 26 27 28 29 29 29 28 35 33 33
9 8 14 29 30 26 31 32 38 32 30 29 22 24 24 24 24 25 23 24 26 28 28 29 31 32 31 29 34 37 32 41
10 15 13 15 17 23 36 38 35 27 25 24 22 20 21 21 22 22 25 27 29 31 31 33 33 33 31 35 35 30 39 37
12 16 17 16 17 20 23 24 22 21 21 21 21 17 18 19 23 24 27 29 32 34 34 35 33 31 35 25 40 41 45 42
15 15 19 23 18 22 24 23 20 20 21 20 19 18 21 22 24 27 30 33 35 36 37 38 35 35 33 40 39 44 44 42
19 20 22 28 23 24 25 24 24 24 23 24 24 25 26 30 31 31 32 33 34 36 33 32 33 36 36 38 38 41 39 38
26 20 28 33 28 25 25 29 29 28 27 27 29 30 31 33 32 33 35 34 32 32 33 34 35 34 32 34 33 33 33 33
24 28 28 27 24 24 25 30 32 30 30 33 32 28 29 32 33 32 31 31 32 33 32 32 32 31 31 28 29 31 32 33

GFSFLT1_700_spd_051.txt.gz
Wind_Speed
10 12 19 22 20 24 22 16 15 13 23 27 23 28 34 40 33 31 25 24 22 21 18 18 16 16 14 12 13 13 14 15
6 8 10 17 26 23 22 22 19 17 25 27 38 42 37 35 29 25 26 25 22 22 20 20 18 18 16 15 15 15 17 18
6 6 9 11 15 17 17 17 21 24 29 32 32 33 31 25 20 24 27 25 22 21 21 23 19 21 20 18 19 20 22 22
7 6 9 10 11 14 16 16 15 19 23 25 26 27 28 24 21 20 18 17 18 17 21 23 20 22 22 22 23 24 26 27
9 10 8 10 12 12 13 14 16 19 20 20 20 20 18 16 17 17 16 15 18 20 21 21 22 20 23 25 25 27 29 30
6 7 11 13 13 13 12 13 15 16 17 18 17 16 17 16 16 17 18 18 17 21 22 24 23 22 22 23 26 28 33 35
11 12 13 15 16 16 17 17 17 18 17 16 14 15 13 14 18 21 17 15 21 21 32 26 22 20 21 24 28 28 29 32
9 15 17 18 18 17 18 20 20 19 19 18 17 18 16 11 12 18 16 21 20 18 19 12 17 20 22 29 32 32 29 30
15 13 13 15 19 20 19 20 18 19 18 19 19 16 13 12 13 19 20 21 20 19 8 14 20 24 29 31 32 33 29 29
20 18 17 19 18 22 22 21 20 21 21 20 21 18 14 14 17 16 20 22 22 20 20 16 22 24 23 24 25 25 28 30
25 24 22 21 23 20 18 23 26 22 23 25 25 25 26 23 20 19 21 21 21 20 23 20 21 22 23 23 24 25 27 35
13 18 29 30 30 28 24 26 36 25 24 26 28 29 31 32 31 24 22 22 20 19 23 24 24 24 23 24 26 26 30 30
15 17 18 18 27 38 41 41 32 19 20 25 28 27 23 26 34 25 24 23 21 21 22 24 26 27 27 26 26 33 28 36
21 18 16 18 25 25 26 26 24 18 23 17 21 26 22 16 21 23 22 20 21 21 24 27 29 30 30 32 35 31 31 31
18 19 16 15 18 21 22 24 21 19 16 22 25 24 21 15 16 15 16 18 21 24 27 29 31 33 33 31 26 35 29 32
16 17 22 24 22 19 20 22 25 24 26 20 16 16 17 19 19 19 20 22 26 29 31 33 33 32 33 31 29 33 36 40
25 23 26 28 29 26 21 22 24 26 24 22 20 21 21 20 21 23 26 29 31 32 31 32 31 31 30 31 36 34 34 35
24 28 29 29 34 34 25 25 24 25 29 28 25 24 23 24 26 28 31 30 30 31 30 31 32 32 32 32 34 32 30 29
27 30 29 30 32 34 30 25 26 29 32 30 28 26 27 30 31 29 30 31 31 29 31 32 33 32 32 31 29 28 27 28

GFSFLT1_700_spd_057.txt.gz
Wind_Speed
12 14 12 21 22 22 24 21 17 21 22 30 37 40 45 49 57 52 40 38 37 34 29 31 24 19 17 14 10 8 6 7
10 8 13 11 13 27 25 26 26 28 18 24 27 25 38 47 55 38 36 39 39 30 36 32 24 20 17 16 14 11 8 10
8 6 7 10 13 8 13 29 28 23 21 23 26 29 27 35 39 34 40 36 33 37 36 28 22 20 19 19 18 16 15 15
3 5 4 6 8 11 9 5 16 25 29 25 27 26 32 39 35 32 39 40 34 39 36 26 25 26 25 23 22 20 20 20
5 3 2 3 6 8 11 11 12 18 25 29 25 26 29 33 29 32 37 37 36 36 30 29 28 27 26 24 25 25 24 23
7 5 5 5 6 7 9 12 14 16 19 23 25 25 27 30 32 32 34 33 31 33 31 29 27 27 26 24 25 28 30 27
9 11 13 10 10 9 8 8 9 11 13 15 16 19 22 24 25 23 24 25 26 25 27 27 26 29 27 31 29 33 33 35
13 13 13 12 11 11 10 10 10 10 10 10 11 14 15 16 19 20 22 23 24 24 25 26 24 22 29 19 27 24 27 19
15 13 12 12 12 12 12 11 11 11 11 10 10 12 14 15 19 18 22 23 22 21 22 24 24 21 19 16 18 24 25 26
16 14 13 13 11 11 16 16 15 13 13 15 16 16 16 19 23 18 18 21 22 25 29 25 22 23 24 22 22 26 27 28
18 21 20 17 13 11 14 18 21 21 21 20 20 20 22 20 24 27 26 24 25 25 25 29 29 26 25 26 27 28 29 29
14 17 18 21 20 20 18 17 19 25 26 26 21 24 27 27 30 30 28 33 33 34 27 28 35 30 29 30 30 32 30 31
10 11 12 16 21 26 26 24 23 21 24 27 19 13 22 25 31 34 38 35 35 28 29 28 30 31 28 29 33 32 33 34
16 15 14 13 12 14 19 24 24 24 25 26 33 31 23 23 27 35 38 20 20 32 27 27 28 30 32 31 33 34 36 36
18 21 17 14 11 8 9 12 14 17 24 27 32 36 25 23 23 25 30 26 24 23 33 30 27 28 29 32 35 37 37 38
25 23 21 19 19 17 17 16 15 19 22 25 30 31 29 28 26 27 23 27 26 25 25 24 26 30 31 33 35 37 40 43
26 23 24 25 25 21 18 17 18 19 20 23 22 28 27 31 31 26 27 25 25 27 27 26 30 32 34 37 39 41 40 39
21 27 28 24 21 21 19 19 20 21 21 23 23 24 25 28 29 29 27 28 27 27 30 30 34 36 39 39 38 39 40 41
20 25 29 28 26 24 23 24 25 23 24 24 21 23 25 26 28 29 29 29 30 31 33 35 36 37 35 37 38 39 40 40

GFSFLT1_700_spd_060.txt.gz
Wind_Speed
12 14 18 10 23 24 19 19 19 19 20 27 25 21 39 38 36 33 38 37 36 32 28 31 21 24 17 16 12 11 10 10
10 12 14 9 17 24 20 21 24 22 21 24 27 26 43 43 42 44 44 39 38 34 29 29 25 22 19 22 17 14 12 13
6 7 9 9 2 19 26 26 24 26 21 19 28 30 44 47 46 48 47 48 45 40 35 35 27 21 18 18 21 18 17 17
3 5 6 7 6 4 14 22 25 24 28 23 21 29 27 36 50 53 52 42 33 34 36 25 28 27 28 24 21 20 21 22
2 2 2 3 4 5 6 6 21 28 28 22 24 24 29 32 26 42 44 42 36 34 30 29 31 32 28 28 25 26 27 26
5 4 3 1 3 4 5 8 7 9 17 23 23 24 26 40 26 32 32 27 34 34 28 33 35 33 30 29 29 29 29 30
7 8 6 4 4 4 5 7 9 11 13 12 11 11 15 20 21 25 28 28 31 32 33 35 35 33 32 30 30 31 31 32
10 9 7 6 5 5 6 6 9 11 13 16 17 17 16 17 18 20 23 28 29 31 33 33 31 33 33 31 35 33 31 36
15 12 10 8 8 7 7 6 8 9 11 12 14 16 17 18 20 21 22 23 23 26 29 32 34 34 33 31 30 25 19 22
15 14 10 9 8 8 9 9 10 11 11 13 14 13 14 16 17 16 17 21 23 27 30 33 34 34 33 34 29 26 25 25
19 17 16 13 11 10 11 13 15 16 15 16 16 16 17 18 19 22 20 19 22 28 31 33 36 32 32 32 32 30 31 28
16 19 18 18 19 16 13 14 15 18 21 21 19 20 21 23 25 24 25 27 28 29 33 34 36 35 35 37 36 32 33 33
7 11 11 12 15 18 21 22 19 18 18 21 25 26 29 35 31 30 30 31 29 32 35 39 35 37 42 37 38 34 33 33
12 14 14 14 12 13 16 17 17 19 20 20 25 29 37 32 19 26 29 33 35 46 38 34 39 39 36 36 35 31 33 38
18 18 14 13 11 10 6 5 5 8 13 17 20 26 29 40 36 28 26 27 27 33 22 25 32 39 39 37 36 32 33 36
21 23 20 17 17 15 14 9 11 11 11 13 19 21 26 29 34 32 30 27 26 30 33 31 27 29 33 37 34 33 35 37
28 25 24 24 19 20 21 17 13 14 16 18 14 20 23 26 29 29 32 30 27 29 28 29 28 29 30 32 33 35 38 40
28 30 31 26 26 23 19 19 18 18 21 23 23 20 22 23 25 29 31 33 31 29 31 30 30 32 33 35 36 39 41 41
28 27 29 25 22 25 23 24 25 23 24 26 27 25 23 22 24 27 30 30 30 32 33 33 32 34 38 37 39 41 43 37

GFSFLT1_700_spd_063.txt.gz
Wind_Speed
8 11 13 15 20 18 20 17 15 14 15 16 24 31 32 34 33 31 43 40 37 32 29 27 21 19 18 14 13 11 11 11
5 10 13 14 19 20 21 16 19 21 13 22 18 32 35 37 34 37 42 42 36 37 35 29 26 21 20 17 16 15 13 13
4 7 9 10 6 17 23 21 22 20 19 22 20 32 35 43 40 39 44 44 43 39 33 31 27 28 25 21 19 19 15 18
2 1 4 6 7 7 21 21 25 21 24 27 24 30 36 38 43 47 44 44 44 43 37 35 30 26 26 22 20 20 19 23
4 3 1 3 5 5 3 13 21 26 27 23 22 26 26 27 43 45 39 47 48 45 43 44 32 31 33 25 21 22 24 25
7 6 4 3 4 6 5 2 11 24 23 28 19 21 21 22 36 44 43 47 46 49 40 36 32 35 35 29 27 25 29 32
7 7 4 4 4 5 6 6 7 9 17 23 29 25 24 31 35 32 47 49 39 39 40 33 27 29 29 31 33 33 32 33
10 5 2 3 3 4 4 6 7 9 12 15 18 22 24 30 34 36 31 31 32 37 35 33 33 35 35 35 36 36 35 37
15 10 6 4 4 5 5 6 7 8 9 9 11 13 14 18 21 25 26 27 27 29 33 33 36 36 35 35 36 38 37 39
17 15 10 8 7 7 6 6 6 8 10 10 10 11 11 12 15 17 20 23 25 28 29 30 31 34 36 36 39 39 39 38
17 14 14 11 10 9 9 10 10 10 11 12 12 12 12 13 15 15 18 20 23 26 29 30 33 36 37 40 42 40 40 40
14 18 18 17 16 14 12 12 13 14 15 15 16 16 16 17 17 19 21 21 23 26 29 31 34 37 40 41 42 43 39 40
10 15 21 20 20 20 20 19 16 15 16 17 20 22 22 23 22 24 23 29 29 28 29 34 36 39 41 47 45 50 38 43
10 12 13 13 14 15 19 22 22 23 22 20 20 21 29 29 28 29 34 31 35 36 38 39 39 42 46 43 42 36 36 40
14 16 17 17 16 17 18 19 18 19 18 19 21 24 25 30 35 35 36 31 34 37 38 40 42 48 35 37 36 40 43 36
17 15 17 19 17 17 16 14 15 15 12 10 7 13 20 25 31 34 36 40 36 34 34 39 39 33 29 30 34 35 39 41
26 24 23 20 22 19 20 21 19 16 17 17 14 15 14 21 25 27 32 36 43 46 43 36 34 34 35 37 37 38 36 37
25 31 32 28 26 23 24 23 25 24 21 21 20 21 21 19 21 25 27 29 31 34 37 36 35 32 33 37 35 36 34 36
28 29 30 34 33 33 29 29 29 26 26 27 25 25 24 28 25 26 27 29 30 31 33 35 37 36 36 37 37 38 38 37

GFSFLT1_700_spd_066.txt.gz
Wind_Speed
9 9 13 18 10 18 21 16 18 12 16 20 22 19 31 37 37 44 39 43 39 33 33 33 25 21 17 19 16 13 12 13
7 7 11 16 11 19 21 19 22 24 17 17 22 23 26 38 34 44 43 42 36 40 40 33 29 24 23 18 16 15 13 12
7 5 8 11 4 20 17 19 22 21 20 19 15 22 26 33 39 43 51 49 45 43 39 36 31 27 25 24 18 18 18 15
7 5 3 5 3 13 16 23 16 21 21 22 25 20 32 33 37 41 37 45 44 42 41 37 34 29 27 27 22 20 22 21
8 6 3 2 3 2 11 20 23 22 25 24 27 17 31 24 30 39 47 52 49 43 43 39 37 33 31 31 30 26 27 25
9 8 4 3 1 2 2 6 13 23 27 26 22 26 31 24 35 39 42 53 50 48 45 44 41 39 38 36 31 32 31 22
11 9 6 6 6 4 2 2 4 11 23 23 26 25 26 29 31 32 45 46 51 46 50 48 47 41 39 40 33 31 31 26
15 9 6 6 7 8 7 5 5 5 10 22 26 28 26 24 26 34 41 46 47 41 45 48 48 48 38 41 35 37 34 35
19 13 10 9 7 7 7 7 7 8 9 11 16 20 22 25 28 33 35 28 31 38 44 40 40 39 37 35 39 42 40 39
19 19 15 12 10 9 8 8 8 8 9 9 10 12 14 17 22 26 29 33 31 36 35 36 34 38 38 40 42 43 42 41
18 20 19 15 14 13 13 12 11 11 11 10 10 10 9 11 13 14 17 22 28 29 32 33 34 40 43 43 42 41 41 42
16 19 18 18 16 16 14 13 14 15 15 16 14 12 13 13 12 14 15 19 21 24 26 31 35 37 37 39 40 40 44 44
11 15 21 21 19 18 18 17 16 15 17 18 18 19 20 21 19 18 19 20 21 21 24 30 32 34 36 40 41 43 46 48
11 11 13 23 23 22 21 21 21 21 21 21 21 23 25 26 24 24 27 26 26 26 30 34 34 36 38 40 41 44 46 50
12 14 14 16 17 17 18 19 21 24 27 29 28 26 24 24 26 31 32 32 32 35 33 32 37 39 41 42 45 48 52 47
15 17 17 19 22 22 22 23 23 25 25 27 27 23 26 29 30 30 31 34 37 37 38 38 39 41 44 46 49 52 49 46
20 20 23 20 20 22 24 23 23 22 18 20 18 17 16 18 24 28 31 35 38 40 41 44 42 44 41 37 43 51 46 46
19 20 21 24 28 27 24 27 27 29 27 24 24 24 23 21 22 23 24 28 31 36 40 45 49 51 52 52 47 45 45 48
24 22 21 24 27 27 30 33 30 30 36 35 31 32 30 28 28 29 29 28 31 35 36 39 43 46 47 47 47 49 47 42

GFSFLT1_700_spd_069.txt.gz
Wind_Speed
14 14 16 15 18 16 20 16 10 9 14 12 15 23 24 29 35 36 44 49 38 39 34 30 30 30 26 22 19 16 15 15
14 13 15 16 19 12 25 20 19 13 11 14 17 18 21 38 39 34 41 44 36 38 43 40 33 29 26 20 17 16 18 17
13 12 12 12 12 10 18 17 16 18 16 14 16 17 15 30 34 32 37 40 44 46 43 39 42 32 26 25 22 21 20 17
12 11 10 8 7 7 17 16 19 17 16 18 17 18 21 28 37 31 41 45 46 43 45 42 35 33 29 28 28 25 23 21
12 10 8 7 3 1 10 14 20 20 20 20 19 16 20 21 30 36 37 47 49 51 43 42 40 38 37 34 32 29 25 23
12 10 7 5 5 1 3 10 18 22 23 21 22 24 21 21 29 38 37 42 45 44 45 50 47 44 41 36 34 34 31 27
15 11 8 6 6 5 3 4 8 15 20 21 23 25 23 22 30 32 34 41 44 50 51 50 48 44 45 39 40 40 32 34
17 14 9 7 7 7 5 3 3 4 10 20 26 26 27 29 27 27 34 33 45 52 52 52 50 46 41 44 43 41 31 35
18 16 13 10 9 8 8 7 5 3 4 7 15 23 30 27 24 25 33 32 36 47 49 54 52 49 48 42 47 39 36 43
20 17 17 14 11 9 9 9 8 7 5 7 10 13 18 21 24 28 29 29 29 39 42 44 45 41 41 45 44 43 42 42
18 18 19 17 15 13 13 12 11 11 9 9 9 10 12 13 15 14 16 26 32 33 32 34 34 38 40 38 40 42 41 41
16 17 19 20 18 17 14 14 14 13 13 12 11 12 13 14 13 14 14 17 21 24 27 29 34 36 37 40 41 39 39 42
11 15 16 19 21 20 16 15 15 15 15 16 16 16 16 15 14 15 17 17 18 20 22 23 25 27 32 36 37 38 38 39
7 12 15 18 22 24 21 19 19 20 19 18 20 21 22 21 20 20 21 21 23 24 24 25 26 27 31 34 36 37 38 40
5 9 12 16 17 25 26 24 23 24 24 24 24 24 23 23 25 27 27 26 28 28 29 29 29 28 29 36 37 39 41 44
9 12 13 13 15 19 22 21 21 22 23 25 27 29 30 30 29 28 27 30 33 33 34 36 36 39 37 38 40 42 45 45
12 9 14 18 19 18 17 24 28 27 27 23 23 25 29 32 28 29 30 31 32 34 36 37 40 42 42 43 44 46 46 49
19 15 16 20 17 20 23 24 23 26 28 27 27 25 26 27 25 24 23 24 26 27 30 35 37 41 43 45 46 49 51 51
24 22 21 21 20 19 22 26 31 30 30 32 33 32 31 32 31 30 29 29 30 29 29 30 32 36 39 41 44 50 53 56

GFSFLT1_700_spd_072.txt.gz
Wind_Speed
16 17 18 14 21 24 17 15 7 3 4 10 10 18 37 29 29 26 24 25 31 36 37 33 32 37 29 28 26 21 18 17
17 16 16 14 19 23 10 17 10 4 4 12 12 22 19 23 25 26 27 36 37 47 33 36 35 34 30 26 25 23 18 18
14 13 15 13 16 14 10 19 12 11 7 10 14 13 14 15 21 30 30 37 35 40 39 37 34 31 30 30 29 23 18 16
19 13 12 11 9 8 5 12 13 11 12 12 13 14 14 20 27 28 30 29 33 47 42 37 40 35 33 35 37 31 21 20
22 14 10 10 7 4 3 10 12 16 15 11 13 13 14 16 19 24 32 28 36 49 51 45 47 38 41 39 38 28 26 26
24 15 10 8 7 3 1 5 11 17 16 15 15 14 12 17 18 25 33 29 26 42 45 42 41 42 44 42 38 35 31 29
24 17 12 8 6 5 3 2 5 11 19 17 21 18 20 20 19 22 30 30 34 38 37 42 45 48 44 44 42 29 31 33
25 18 13 10 5 6 5 4 2 5 11 16 20 20 22 23 16 20 24 29 35 34 39 44 49 50 48 45 40 38 42 40
26 18 13 12 7 6 6 5 4 2 3 8 16 24 25 22 24 20 21 26 25 23 35 40 48 52 48 49 50 48 46 45
22 21 14 15 10 6 6 6 5 4 2 3 8 16 23 23 24 24 26 27 25 33 29 36 47 46 48 50 47 47 49 42
21 20 16 17 13 10 8 7 6 6 5 4 4 5 9 16 24 22 23 24 24 30 32 35 40 43 50 52 49 48 47 47
20 19 16 17 17 15 13 11 9 8 7 7 7 5 6 8 10 15 18 20 25 29 30 30 35 39 40 46 49 48 44 41
17 17 17 13 18 18 15 15 12 10 8 9 10 11 10 9 8 9 12 13 16 19 24 28 30 30 34 38 41 42 44 46
6 13 15 16 16 18 19 18 17 16 15 14 13 14 14 14 14 15 15 15 16 18 20 19 21 23 27 30 32 34 37 37
2 6 10 15 15 15 21 23 22 21 20 20 20 19 18 18 19 21 22 21 22 22 22 24 25 26 27 28 30 30 32 34
3 6 7 12 15 14 14 19 25 25 23 21 21 20 22 25 26 25 25 26 26 26 27 28 28 30 31 32 33 33 33 34
6 13 8 5 11 20 19 16 16 23 24 24 24 24 23 24 27 30 31 31 30 30 30 30 31 32 32 33 36 38 38 40
15 15 15 16 19 12 16 22 26 21 20 24 27 29 28 26 25 28 30 31 30 30 29 30 29 30 30 34 35 39 41 43
27 25 22 22 19 22 25 27 25 25 24 25 26 29 32 33 33 31 30 31 31 29 29 30 31 29 29 28 31 37 40 42

GFSFLT1_700_spd_078.txt.gz
Wind_Speed
24 28 25 23 22 19 20 23 19 12 11 13 16 23 26 26 24 25 38 34 24 23 23 28 32 37 37 34 32 30 28 27
25 25 24 20 21 18 19 21 8 8 9 14 14 24 26 29 28 23 41 43 29 21 29 29 30 42 39 34 34 31 29 28
24 19 19 19 20 17 16 11 8 6 5 5 16 24 24 36 31 29 33 40 34 29 25 28 39 42 40 36 35 33 31 29
25 16 18 16 18 16 13 5 8 7 5 5 12 20 27 26 33 37 33 36 32 28 27 29 35 43 43 40 37 35 32 33
26 16 16 13 16 15 12 7 7 7 7 5 7 15 26 31 31 26 28 30 27 31 25 31 39 41 40 40 37 32 30 31
29 17 17 14 14 14 11 6 4 8 8 9 8 9 14 31 39 35 31 30 28 26 26 31 37 39 44 45 44 38 31 31
28 18 18 18 15 13 9 6 2 5 9 11 10 9 12 15 26 33 33 32 24 27 32 27 30 37 41 42 40 31 30 32
29 20 15 16 14 13 8 5 2 1 4 10 14 12 15 12 13 22 27 27 30 23 34 27 34 40 37 30 35 27 31 35
24 18 11 11 13 13 8 5 3 2 2 2 8 15 16 16 16 18 15 17 23 24 28 27 25 35 41 37 35 32 35 38
22 17 9 9 15 12 9 6 5 4 3 2 0 6 11 13 18 18 15 16 23 28 22 24 32 30 39 41 41 42 41 41
22 11 8 12 16 14 10 6 5 5 4 4 5 4 5 11 17 15 16 14 17 21 26 25 30 29 37 45 47 48 48 52
17 10 7 8 15 16 12 8 6 4 4 4 4 6 7 6 7 11 13 15 16 14 24 28 29 29 22 28 32 40 48 48
16 12 8 5 12 18 15 12 8 6 5 5 3 3 4 6 7 8 10 10 12 14 20 22 26 25 27 32 36 33 34 39
19 14 9 6 10 16 15 15 12 10 8 8 6 5 4 4 5 7 7 8 10 13 16 19 21 22 25 30 32 35 39 39
25 23 17 12 9 9 9 9 13 15 14 13 12 11 10 10 10 10 11 13 13 13 14 16 17 19 23 26 29 30 32 34
24 25 22 19 17 15 12 10 8 7 11 17 17 17 17 18 17 17 17 19 19 19 20 21 21 22 23 24 25 28 31 34
17 17 12 12 19 15 14 12 10 10 10 12 14 15 16 18 20 23 24 24 25 25 26 27 27 26 27 28 30 32 33 34
19 15 10 5 6 6 10 16 19 19 19 19 18 17 17 16 17 17 19 22 27 29 30 32 32 31 32 32 34 37 39 40
17 16 14 15 15 15 16 18 17 18 17 19 22 24 25 25 25 23 24 24 22 22 26 31 33 34 36 38 40 42 43 44

GFSFLT1_700_spd_081.txt.gz
Wind_Speed
29 25 22 31 23 24 27 29 27 27 21 18 18 22 25 19 25 20 26 40 42 38 33 28 24 27 34 36 35 31 28 26
29 23 20 24 20 20 26 27 25 16 11 13 16 20 21 25 29 21 30 42 40 36 34 27 22 28 34 35 34 32 32 31
30 26 18 20 15 20 24 23 19 10 10 9 13 17 20 26 30 22 32 41 41 40 35 28 25 30 33 34 36 36 35 33
30 28 21 16 16 17 20 19 14 12 10 6 6 13 22 26 29 28 32 42 40 36 25 31 33 32 27 37 38 37 36 35
27 27 26 14 15 17 16 17 12 11 10 4 2 13 22 23 25 29 30 40 39 33 25 29 28 28 37 38 39 36 36 35
28 26 28 16 17 17 15 15 10 8 9 5 3 3 17 23 36 30 32 37 36 41 32 26 27 34 38 40 41 40 40 36
25 28 28 20 20 16 13 13 7 7 10 10 7 6 8 19 25 35 28 26 36 31 26 30 32 33 39 42 40 41 41 37
22 27 26 23 24 16 12 12 6 6 7 10 12 9 10 9 18 24 33 31 31 30 31 31 30 31 36 40 39 41 44 38
23 29 27 21 13 13 12 11 7 6 5 5 10 14 12 14 12 17 23 29 31 33 21 25 26 33 31 35 41 43 43 38
25 27 27 16 15 14 11 9 7 6 5 5 4 10 14 15 14 15 19 20 23 31 24 30 29 23 23 35 40 38 42 40
24 26 22 17 15 15 13 10 8 6 4 4 4 5 8 15 18 19 18 16 19 23 26 25 24 29 25 23 33 38 34 36
23 25 18 18 17 17 15 11 8 7 6 5 5 5 6 9 15 18 17 17 17 22 27 24 24 23 26 31 28 33 37 39
26 20 19 18 17 18 17 14 10 8 7 6 6 4 4 5 8 12 16 17 16 16 21 27 31 28 30 28 30 25 33 40
28 23 22 20 17 19 21 18 16 13 10 8 7 6 4 4 5 5 8 10 12 15 18 20 22 31 34 34 34 36 39 39
32 28 27 23 19 19 18 16 16 16 15 13 12 11 10 8 7 8 9 9 10 11 13 14 16 19 22 26 30 32 35 34
34 33 30 27 23 23 22 20 19 19 18 17 16 17 16 15 14 14 14 14 15 17 18 19 20 21 22 24 27 29 32 33
32 32 29 22 21 21 20 17 14 14 16 17 18 18 18 17 18 19 20 20 21 22 23 24 25 26 27 29 31 33 34 34
21 20 20 17 15 18 16 17 15 15 15 14 14 14 15 17 17 18 18 20 21 24 26 28 29 30 31 32 33 36 39 40
23 21 18 14 11 10 11 12 11 11 13 13 14 19 21 20 21 22 23 23 21 21 20 19 22 23 27 31 35 38 41 42

GFSFLT1_700_spd_084.txt.gz
Wind_Speed
30 26 26 27 29 29 28 23 26 31 33 30 20 19 21 25 30 30 38 35 31 29 38 43 38 37 37 35 33 29 29 26
34 29 26 25 19 21 24 20 26 29 30 19 16 13 18 24 28 22 28 36 30 32 46 42 39 36 34 35 33 33 33 31
28 29 26 25 19 17 19 20 24 26 21 15 15 18 22 22 24 19 25 28 38 46 41 38 36 35 36 32 32 33 35 34
29 28 22 27 18 17 16 20 24 23 16 14 15 18 16 21 21 28 20 25 43 43 39 37 35 32 35 34 32 35 32 32
29 26 26 24 19 16 17 18 23 20 14 13 12 11 12 20 16 28 19 32 47 43 40 38 31 34 35 35 32 34 30 33
21 24 22 25 20 15 16 18 18 16 13 11 9 6 10 16 16 19 23 34 39 41 44 42 36 38 36 36 38 39 33 34
19 27 28 26 23 16 18 17 15 14 12 11 10 5 5 13 17 25 31 35 42 43 40 28 28 32 35 39 36 30 33 32
18 23 23 27 25 21 19 14 12 13 11 9 10 8 5 8 18 15 30 34 40 42 35 36 31 30 34 40 35 33 37 41
26 22 20 24 23 23 20 15 10 10 8 7 8 9 7 8 10 20 27 31 32 26 27 32 25 24 26 32 35 39 40 40
25 22 22 25 22 18 16 14 9 9 6 5 5 7 9 8 9 13 14 25 24 25 27 19 24 25 24 29 28 30 38 35
26 23 24 26 22 19 17 14 10 9 5 3 3 5 9 11 13 10 13 19 24 27 27 25 24 21 20 31 26 33 33 36
22 21 27 27 23 21 19 15 11 9 7 5 3 2 5 9 13 13 14 16 17 21 25 27 24 27 26 21 21 24 22 32
16 29 32 28 26 23 20 17 15 14 12 9 7 5 5 6 11 14 15 15 13 15 18 25 28 27 26 24 30 34 29 30
26 31 28 28 28 26 23 21 18 15 14 13 11 9 8 9 9 11 12 14 14 14 15 19 24 25 28 29 30 29 30 27
28 30 29 27 26 25 23 22 21 19 17 16 14 13 11 10 10 9 9 9 10 12 13 15 18 22 25 28 32 32 33 33
30 32 33 32 30 27 27 28 26 22 20 18 17 16 14 12 11 10 11 11 12 12 13 14 16 18 20 23 27 31 34 36
26 32 33 32 29 27 26 22 19 19 18 19 19 19 18 16 15 15 15 15 15 16 17 18 20 21 23 25 27 30 32 33
23 27 29 31 23 18 20 19 19 16 15 14 14 16 18 18 17 17 19 19 19 20 22 24 25 26 28 28 30 32 34 35
16 19 20 19 20 22 21 21 22 20 16 13 17 15 15 14 14 16 18 18 16 16 18 19 20 26 28 29 31 32 34 35

GFSFLT1_700_spd_087.txt.gz
Wind_Speed
32 34 31 29 29 27 26 27 29 28 26 28 29 27 22 21 24 29 28 29 30 30 29 24 36 44 41 39 35 33 30 24
31 35 35 35 30 30 23 20 20 25 26 28 29 20 18 18 23 31 34 31 33 40 24 28 41 43 40 36 35 33 34 33
31 33 33 33 32 29 22 19 19 24 27 27 26 19 17 20 23 29 33 28 39 41 33 37 41 39 38 37 36 34 36 33
27 26 27 30 31 26 19 19 19 24 24 26 22 19 18 22 26 30 36 27 34 41 36 30 44 42 38 37 36 35 30 32
26 24 27 29 27 23 21 20 19 21 22 23 19 17 18 16 18 27 30 27 27 36 39 31 47 41 39 36 35 34 35 38
21 20 25 26 26 20 21 19 18 18 19 20 16 14 13 11 15 20 19 22 25 35 41 47 44 39 37 36 35 33 33 33
19 19 25 28 26 22 21 19 17 16 18 16 13 12 10 10 12 17 16 19 24 43 42 42 41 39 36 36 33 34 32 33
13 20 27 25 22 23 24 17 14 15 15 13 10 11 9 7 13 16 14 26 38 47 48 45 44 42 40 36 36 35 37 36
19 22 25 19 22 24 25 21 14 14 12 9 9 8 9 6 11 15 10 25 29 38 41 43 43 39 32 31 39 40 42 40
18 21 24 21 19 23 25 22 15 14 10 7 7 6 8 6 7 13 18 24 31 28 35 33 36 30 21 26 29 29 38 32
27 22 25 20 22 26 22 20 15 14 10 7 6 5 7 9 10 10 15 17 23 22 31 15 20 29 22 25 25 23 22 23
27 25 25 18 25 29 24 20 17 15 11 8 5 4 6 10 13 13 14 17 19 18 18 24 26 17 23 18 19 25 18 21
24 23 28 26 32 29 26 22 18 16 13 11 8 6 5 9 13 15 14 17 19 21 23 27 31 27 23 20 23 20 26 24
19 21 24 34 35 30 25 23 21 18 16 13 10 8 8 7 10 14 15 16 16 16 17 20 25 27 27 28 22 21 25 25
16 18 30 34 33 30 27 24 24 21 18 16 13 11 9 9 9 10 11 12 13 13 14 15 18 22 26 23 27 29 31 28
12 26 28 33 32 31 28 27 26 24 21 19 16 14 11 10 9 9 10 10 10 10 11 11 13 15 18 21 24 26 26 28
12 23 30 35 34 32 29 27 28 26 24 22 20 18 15 12 10 10 9 9 9 10 11 12 15 17 18 19 21 22 23 24
13 19 28 32 32 30 28 26 25 24 23 22 20 20 19 17 16 15 15 16 16 16 17 17 20 21 21 22 24 25 27 28
13 17 21 28 30 27 28 28 19 16 14 16 17 18 19 17 16 16 16 16 15 16 17 18 21 19 19 21 23 27 29 31

GFSFLT1_700_spd_090.txt.gz
Wind_Speed
33 37 37 39 38 37 36 33 32 31 31 32 32 28 28 32 27 22 23 26 30 33 32 33 30 36 33 35 39 37 35 33
37 35 38 40 41 37 36 34 33 31 28 29 30 27 30 31 25 22 24 28 31 33 30 30 33 40 29 38 41 40 37 33
36 35 38 40 41 38 36 34 31 28 24 25 26 28 31 28 25 24 25 29 34 35 35 35 34 33 38 40 41 42 39 35
33 34 37 38 39 38 36 36 30 26 23 22 26 29 30 25 24 25 27 31 38 35 35 36 35 26 38 47 42 42 37 35
32 33 29 32 32 35 39 35 26 24 21 22 25 29 25 22 24 24 28 35 43 36 34 37 35 34 39 44 42 40 40 37
21 26 30 30 32 33 34 32 26 24 19 22 24 25 21 21 22 23 21 28 34 37 33 43 34 30 41 45 39 40 38 36
19 26 28 29 31 30 31 29 24 22 19 22 23 21 19 19 19 18 20 22 30 31 38 39 42 32 44 41 37 38 38 35
17 22 24 26 28 29 26 26 23 20 18 20 20 17 16 17 16 15 16 16 26 29 31 37 42 39 43 41 38 39 37 34
16 19 24 26 30 28 24 26 23 19 17 17 17 14 14 14 12 12 15 15 24 22 29 35 33 39 44 40 39 36 34 35
17 15 21 23 21 22 24 28 25 20 17 17 14 11 12 12 11 11 15 11 18 22 32 38 38 41 42 41 40 39 41 39
20 17 19 26 22 18 25 29 25 21 18 17 12 11 10 11 11 8 12 12 19 29 28 39 42 42 44 39 35 31 27 31
25 25 21 24 22 21 25 28 26 23 18 16 11 10 8 10 11 9 12 15 17 19 27 26 15 33 37 34 24 23 25 24
19 24 25 29 25 26 27 29 26 21 19 17 12 9 8 10 12 11 11 18 16 18 20 22 20 17 18 20 20 19 15 22
14 24 31 30 26 26 32 31 24 21 20 18 13 10 8 9 13 15 12 17 21 23 25 24 23 24 27 24 24 19 19 20
9 18 25 30 28 31 35 32 26 23 21 19 16 13 10 9 13 15 15 15 16 17 20 22 22 22 26 24 24 25 20 25
15 18 32 31 33 32 35 30 27 24 23 20 18 16 13 12 12 15 17 16 16 15 14 14 14 17 19 22 23 22 24 24
12 15 15 23 32 39 37 34 29 27 28 25 21 18 16 15 15 14 14 14 14 16 17 17 16 17 16 17 18 18 19 22
12 15 17 21 29 35 35 31 28 28 27 26 24 22 20 18 17 17 17 17 18 18 19 20 18 16 18 19 19 20 22 25
19 17 19 23 26 31 32 29 28 28 28 26 24 23 22 21 20 19 18 18 18 18 20 19 19 18 19 20 21 23 27 29

GFSFLT1_700_spd_093.txt.gz
Wind_Speed
23 22 26 29 32 32 41 42 39 37 36 36 35 35 35 32 30 29 29 30 28 30 34 35 34 29 31 28 25 38 37 28
26 25 25 26 29 31 44 44 41 40 38 38 36 36 34 33 32 30 32 30 28 30 31 31 35 34 31 30 27 41 35 34
25 27 28 29 32 37 43 44 42 40 38 35 34 34 32 31 33 31 33 31 29 31 32 35 37 32 32 36 33 39 39 36
24 26 29 30 35 36 42 43 42 39 37 32 31 32 27 31 30 33 29 28 29 32 33 35 34 35 36 35 34 39 43 36
22 26 29 31 32 36 40 41 44 39 36 32 32 26 27 28 30 32 30 29 30 32 34 37 35 38 34 38 41 34 42 40
15 20 26 28 28 35 37 39 42 38 35 33 28 25 27 28 31 29 30 31 31 29 35 40 36 39 31 37 40 39 45 40
12 13 20 24 25 34 34 36 36 37 35 31 25 24 25 29 28 27 28 28 24 30 33 37 37 35 35 35 41 44 41 40
9 8 13 20 27 35 33 34 33 32 31 28 24 23 26 27 27 25 24 23 24 23 32 43 34 39 39 30 40 47 41 40
6 6 12 21 30 31 30 32 31 30 29 24 22 23 24 25 24 22 21 21 23 22 28 37 39 39 38 31 42 43 38 36
8 13 11 19 29 28 29 32 30 30 27 23 20 21 23 24 21 20 19 19 18 22 25 24 34 38 40 36 46 40 38 36
16 15 7 14 22 24 26 28 33 30 27 23 19 19 22 22 18 16 17 14 15 19 24 24 31 32 39 36 39 38 35 35
13 21 14 13 22 21 22 27 31 30 28 25 18 17 22 18 15 13 13 13 15 15 19 22 24 33 35 46 38 38 36 34
7 19 18 19 19 18 20 23 30 30 28 22 17 16 20 15 13 11 9 8 10 10 19 18 27 34 38 41 41 39 37 35
4 12 17 21 20 15 19 17 25 32 28 21 17 16 18 13 11 10 8 8 13 12 16 21 18 16 23 32 32 31 20 18
4 6 14 23 25 21 21 25 31 33 26 21 19 16 17 12 11 10 10 9 11 14 19 16 17 15 17 17 23 24 22 20
7 7 10 18 26 36 30 24 33 33 27 24 22 19 18 12 11 12 13 14 16 16 18 19 17 17 22 25 25 24 23 25
12 7 9 12 18 24 28 31 39 32 29 28 25 22 20 16 13 15 15 15 17 18 18 17 19 21 20 20 21 21 21 19
18 12 11 14 17 24 31 39 41 35 32 29 27 25 24 20 19 18 19 20 20 20 20 18 16 14 14 15 17 19 20 22
12 14 13 18 19 28 37 38 37 34 31 29 27 26 26 25 24 22 22 22 22 22 22 20 19 19 19 20 21 24 25 25

GFSFLT1_700_spd_096.txt.gz
Wind_Speed
26 27 27 30 31 32 37 41 43 38 38 38 38 36 36 34 34 33 30 29 30 30 30 29 31 32 30 26 23 24 23 32
28 27 29 28 32 31 37 44 46 41 40 39 39 38 37 35 35 34 32 31 32 32 31 29 29 35 30 28 27 27 35 35
25 27 31 31 31 35 38 42 48 49 38 39 39 39 37 35 34 34 32 32 32 33 30 29 31 32 40 39 29 28 36 41
26 26 27 29 32 34 38 45 51 46 36 40 39 40 37 34 33 30 30 31 33 33 28 29 32 33 34 27 32 30 42 43
23 24 30 31 32 36 43 47 47 44 34 37 38 40 37 31 27 28 29 31 34 32 29 29 31 35 35 28 37 29 34 45
15 20 23 30 33 35 40 42 40 41 32 34 36 39 35 29 29 29 30 33 33 31 31 31 31 37 36 31 35 43 45 46
8 10 17 25 28 34 37 41 38 37 32 32 36 36 32 30 29 28 30 33 30 31 31 33 33 35 38 36 38 38 41 38
1 8 11 13 22 31 37 39 33 34 29 31 35 33 30 30 29 28 31 29 28 29 30 27 31 32 39 33 36 35 42 38
10 11 4 12 16 30 32 36 32 34 29 30 33 33 28 29 27 28 28 28 28 27 28 26 25 33 37 35 36 40 37 44
12 12 11 14 19 28 34 33 28 31 30 29 29 28 29 24 24 24 27 26 26 25 23 25 30 31 33 29 38 37 36 42
5 14 15 14 25 29 30 26 28 31 29 27 28 28 25 23 19 22 24 23 23 24 23 24 28 28 35 37 34 31 40 44
4 16 17 16 16 16 22 29 32 30 29 29 31 27 22 21 17 19 21 20 19 19 21 22 29 19 27 40 31 34 35 44
7 9 18 16 16 12 13 25 29 29 28 31 30 25 20 19 16 17 17 15 12 13 22 20 26 26 27 37 38 36 42 38
9 3 10 18 17 15 16 21 26 30 31 33 28 23 19 18 15 15 15 10 9 7 9 12 17 19 27 21 36 30 40 33
10 5 3 12 19 17 20 22 25 25 28 29 28 23 19 18 15 13 13 7 5 6 10 21 14 17 22 27 29 40 37 35
8 8 5 6 14 19 22 22 21 25 27 29 27 24 20 18 15 14 13 9 8 9 9 11 10 6 14 19 30 37 36 31
9 8 9 8 8 13 21 19 16 23 28 30 29 26 23 20 17 14 13 10 13 13 15 15 16 19 15 16 18 19 21 24
7 7 12 11 12 12 16 22 30 35 29 34 32 29 26 23 19 18 17 19 17 16 16 16 16 18 19 18 17 21 25 23
12 10 9 16 16 17 19 22 28 32 31 37 34 31 28 26 23 21 19 19 20 20 19 19 17 16 16 18 22 24 25 26

GFSFLT1_700_spd_099.txt.gz
Wind_Speed
28 30 28 29 30 29 30 38 41 37 39 38 35 36 36 36 35 34 31 29 29 28 28 28 28 28 27 30 31 28 30 26
28 24 25 29 26 30 34 34 38 41 43 38 32 35 34 39 36 34 30 31 32 30 31 30 30 30 27 27 28 28 26 23
36 36 31 30 29 30 33 36 36 43 43 39 37 34 35 36 36 33 32 33 31 31 32 30 31 30 27 26 30 28 31 28
30 22 26 33 32 32 38 39 39 39 42 41 43 36 38 37 36 35 33 33 31 30 31 32 32 30 29 27 26 29 23 26
25 29 29 28 33 35 36 40 42 40 41 45 43 36 39 38 36 34 30 28 29 29 32 33 34 30 29 26 27 26 31 34
30 33 32 34 30 32 38 36 40 44 42 45 42 40 37 35 33 31 27 29 29 29 32 35 33 31 29 28 32 33 29 34
24 27 36 39 43 37 35 36 40 44 43 42 42 36 36 33 31 30 28 28 29 31 33 34 31 31 30 31 33 33 33 42
17 16 20 21 23 37 39 33 39 41 36 39 36 33 33 30 30 28 28 28 30 31 32 31 29 30 30 32 35 36 37 35
14 18 20 18 19 22 27 34 38 33 33 32 29 29 29 29 27 27 27 28 30 30 29 28 30 30 26 31 35 41 42 39
15 20 20 17 18 11 21 25 29 32 32 30 28 28 28 27 27 24 26 28 29 27 26 28 30 28 31 27 37 37 37 36
11 19 19 21 17 16 20 24 29 31 29 29 29 28 23 24 24 25 25 27 26 25 26 26 27 26 28 34 36 40 37 39
6 17 21 19 24 23 23 26 27 29 29 27 25 23 26 25 25 24 25 24 23 24 24 24 23 27 28 31 32 34 40 39
2 19 15 20 22 24 28 28 28 31 32 27 24 24 25 26 26 22 23 20 21 21 19 19 25 23 24 27 31 33 38 39
5 3 20 18 16 15 17 21 27 27 28 28 24 25 30 28 23 22 18 17 18 18 16 19 25 26 29 22 26 33 29 30
7 4 9 20 22 22 14 22 27 28 27 29 29 30 27 25 22 20 15 14 15 13 11 10 10 20 24 23 22 31 34 30
9 4 4 8 10 16 15 24 23 23 22 23 23 23 27 25 23 19 14 13 15 13 8 12 2 10 11 21 21 23 34 30
9 5 4 7 9 10 12 22 28 25 26 21 22 27 27 27 24 20 15 14 17 13 10 9 7 3 8 20 18 25 33 37
10 5 5 6 8 11 10 13 27 26 21 21 19 20 30 26 24 20 16 15 16 17 15 15 15 13 12 9 13 20 30 36
13 12 9 5 8 11 15 14 16 24 26 25 19 21 30 27 27 22 19 16 16 15 14 12 11 11 15 15 15 18 20 22

GFSFLT1_700_spd_102.txt.gz
Wind_Speed
28 36 38 43 52 54 49 51 46 47 43 40 34 33 32 29 32 34 34 32 31 29 28 26 25 24 22 25 26 26 29 30
32 23 29 29 30 35 37 41 40 39 35 44 40 37 30 29 31 34 35 34 32 30 30 28 28 27 24 27 26 27 28 27
39 31 27 30 32 38 40 34 33 35 35 40 44 34 32 30 26 31 34 35 32 30 31 30 30 29 27 28 28 27 28 28
41 37 32 34 35 35 38 40 34 33 32 38 39 38 36 34 33 30 31 34 34 32 31 33 32 30 29 29 29 28 27 29
36 40 39 44 43 39 35 33 35 34 37 37 39 40 37 32 31 32 31 36 35 33 32 32 31 32 32 31 30 28 28 30
42 36 34 36 32 41 45 38 33 34 36 37 35 37 37 34 36 35 34 38 37 33 31 32 31 33 33 34 30 30 30 33
23 31 25 31 30 32 35 39 40 38 33 35 37 32 32 33 38 39 36 35 33 31 31 31 31 34 34 33 31 30 31 33
22 25 27 32 37 38 36 37 39 40 37 35 30 31 33 37 38 34 34 32 30 29 28 29 31 34 33 33 32 31 33 34
23 22 22 25 32 38 42 46 39 34 31 30 30 31 32 34 34 34 31 29 28 26 26 31 33 32 33 33 34 32 35 35
17 19 21 22 21 23 24 30 33 33 26 26 29 32 33 31 30 32 30 29 25 24 31 33 32 33 32 32 30 33 34 38
17 21 22 23 20 23 24 27 23 25 27 28 31 32 29 27 27 27 28 26 23 27 31 31 31 31 31 30 29 32 39 40
11 14 17 21 21 21 21 24 26 28 28 28 29 28 27 25 23 23 24 23 25 29 29 29 29 30 30 28 31 31 38 34
1 11 12 13 21 23 24 25 28 29 29 27 26 26 19 21 20 23 22 24 28 27 26 27 27 27 25 27 31 37 37 43
4 3 17 12 18 15 21 24 27 28 30 27 23 21 24 20 22 23 23 27 26 24 24 25 26 26 24 26 32 28 34 31
4 4 5 18 18 16 15 12 16 16 16 21 25 26 25 22 21 25 30 26 24 22 22 23 24 20 25 29 25 21 24 34
5 3 5 5 9 13 19 13 15 14 18 24 24 23 25 21 26 27 26 23 22 21 19 18 15 16 19 20 24 25 29 25
8 2 3 6 4 5 7 10 21 19 18 19 20 21 22 23 28 28 25 23 22 20 17 14 13 9 7 11 16 20 25 25
13 6 3 3 5 6 9 9 17 22 19 22 20 18 19 17 22 24 22 23 21 16 14 15 12 11 12 9 15 19 20 25
14 14 9 5 4 7 8 12 11 23 18 17 18 23 21 19 20 28 26 23 20 13 13 17 17 16 15 12 12 12 18 19

GFSFLT1_700_spd_105.txt.gz
Wind_Speed
41 37 34 39 42 53 56 50 47 43 40 41 38 36 33 33 30 32 36 34 32 30 29 28 27 25 25 23 22 23 23 24
42 38 33 33 29 37 52 59 57 49 49 45 42 43 42 38 37 29 28 33 36 34 33 31 30 29 26 26 26 26 26 25
39 42 41 36 35 26 34 44 50 55 46 42 42 39 38 39 36 32 31 29 32 35 36 33 32 30 29 29 28 27 28 26
45 42 40 46 40 34 33 32 37 46 41 37 40 41 36 40 37 37 32 29 27 31 36 35 31 31 30 29 30 30 30 27
51 46 42 45 43 41 38 36 36 39 40 40 40 38 38 41 39 36 30 27 25 27 33 32 30 30 30 30 30 31 32 30
48 52 52 48 43 42 40 40 35 38 39 38 34 35 35 36 35 32 33 28 26 27 32 33 32 31 31 31 30 32 34 32
33 36 36 40 45 41 40 39 38 36 33 36 32 32 34 34 37 33 35 31 32 34 31 34 34 32 33 31 32 34 35 33
24 23 25 28 31 30 35 35 32 40 39 37 32 28 30 32 30 31 35 33 35 37 31 33 34 34 32 32 34 36 36 34
22 20 23 27 30 28 32 32 28 31 33 41 36 30 28 28 30 31 33 34 36 30 28 30 33 32 31 34 36 38 36 35
19 24 23 23 22 24 26 30 34 33 33 32 35 36 30 28 30 31 32 36 32 28 29 28 28 29 31 36 38 37 36 36
27 24 14 19 20 22 26 33 35 40 39 37 32 30 32 31 31 31 33 31 29 28 27 28 28 30 33 37 37 36 37 36
7 10 22 22 21 20 20 20 22 24 27 39 35 33 31 31 31 30 28 26 26 28 30 28 29 32 34 35 36 35 35 33
4 12 8 9 16 19 18 19 18 21 22 27 29 30 29 29 29 29 28 25 26 27 28 30 30 32 34 35 34 31 38 36
2 1 8 9 9 11 17 17 17 16 20 22 23 25 26 24 20 21 24 24 23 26 29 27 31 33 33 31 32 33 31 37
2 2 4 11 12 10 9 13 17 24 25 25 25 18 19 18 20 22 20 24 25 25 27 28 31 30 27 29 26 31 34 38
4 3 1 1 4 8 12 13 9 12 22 30 26 25 20 19 22 22 21 23 23 25 30 31 27 27 22 19 22 28 33 35
10 7 5 1 1 1 5 10 14 13 27 20 16 16 21 24 22 22 19 16 27 29 29 27 24 21 17 16 19 20 22 24
17 12 7 4 1 3 1 4 9 22 9 8 11 18 17 16 22 20 21 27 23 25 27 24 20 15 15 16 17 16 18 19
21 21 18 13 6 3 4 5 6 15 17 13 18 18 14 18 18 20 21 23 29 25 20 18 18 13 19 18 18 20 21 19

GFSFLT1_700_spd_111.txt.gz
Wind_Speed
40 39 41 42 45 47 51 52 51 49 46 48 51 48 47 42 39 36 33 28 28 38 37 34 30 28 28 26 25 24 22 22
44 46 45 44 45 46 50 51 51 47 53 54 53 52 50 49 45 39 36 31 30 34 39 38 36 34 31 30 29 28 26 25
47 47 49 49 45 45 47 48 48 48 46 49 54 56 51 51 48 46 40 35 31 32 37 42 41 38 36 35 34 32 30 27
32 36 42 44 45 45 45 45 47 47 46 44 46 57 59 56 55 48 44 39 36 38 38 39 42 41 40 38 36 34 33 29
28 27 28 28 32 41 42 45 40 43 45 43 43 46 58 63 57 51 47 44 42 40 39 39 37 41 43 41 40 39 36 32
36 29 28 31 35 38 43 38 44 42 42 43 40 37 47 57 59 54 48 41 40 39 41 40 38 36 37 36 39 39 38 34
33 33 33 34 35 37 38 41 46 45 40 39 40 36 32 40 46 49 50 44 42 39 38 40 36 32 31 27 31 37 37 36
33 29 29 30 35 38 34 39 44 48 41 39 38 34 33 32 35 41 46 38 39 38 39 39 38 31 32 28 27 33 37 36
34 32 30 28 24 25 26 28 36 40 42 38 37 36 34 33 35 36 38 37 38 38 37 38 37 32 33 32 33 34 38 38
26 30 35 33 36 20 22 22 27 33 34 40 39 38 35 33 35 37 37 37 37 37 36 37 36 34 33 34 33 34 37 38
21 24 34 33 30 19 18 16 23 28 35 38 36 36 34 34 32 36 34 32 35 37 36 37 39 38 33 35 35 33 37 36
24 14 13 23 27 27 19 13 15 23 28 31 31 29 28 32 32 31 31 32 33 36 39 41 38 34 33 37 34 33 35 34
23 16 7 7 6 12 27 15 9 15 20 26 27 27 26 29 35 36 34 36 34 34 36 36 34 35 38 35 34 32 31 32
18 17 15 17 16 7 9 5 10 3 15 22 28 28 28 27 29 36 38 33 32 33 33 32 33 32 32 34 30 28 30 32
10 11 11 13 13 6 16 10 9 6 5 15 20 25 28 33 38 39 37 33 31 29 29 28 29 26 31 30 29 30 30 30
13 13 12 10 8 10 10 7 1 17 11 7 7 15 21 25 31 34 35 33 31 33 33 35 33 32 29 28 29 28 28 28
29 26 18 11 9 10 6 9 6 5 6 12 13 13 18 22 28 27 25 27 27 33 37 33 29 31 27 27 26 26 27 26
32 33 32 26 18 15 13 9 9 2 6 4 7 18 20 23 32 24 22 25 37 29 20 25 28 26 25 24 25 24 23 24
28 30 31 32 32 29 23 13 10 10 7 11 2 5 7 26 27 25 30 24 19 18 19 21 19 18 19 19 19 23 25 26

GFSFLT1_700_spd_114.txt.gz
Wind_Speed
36 36 38 38 38 40 43 50 49 48 47 48 49 51 49 43 44 43 38 37 35 33 32 36 35 31 30 30 28 27 26 23
38 40 42 40 42 41 44 46 53 53 52 54 56 57 57 52 50 48 45 44 40 36 32 32 38 37 34 33 33 31 30 28
39 40 42 45 45 46 47 49 50 54 56 56 59 59 56 57 55 53 50 49 45 40 35 31 32 41 40 38 37 36 34 32
37 36 38 41 44 48 51 50 52 52 54 56 57 59 63 62 62 58 56 51 50 44 40 36 34 37 43 41 40 40 38 35
30 32 31 37 38 42 44 47 48 51 51 54 57 57 59 65 66 62 56 54 54 51 46 40 38 38 40 44 44 41 42 40
34 31 33 31 37 38 39 41 42 47 55 57 56 55 55 53 57 62 64 58 56 56 51 46 42 41 39 40 44 43 42 42
34 34 33 29 29 33 38 45 45 46 52 53 55 55 53 46 50 51 54 63 60 59 54 50 46 44 42 41 40 40 39 40
33 36 33 33 31 31 32 42 48 48 51 53 56 48 49 46 44 40 42 51 66 62 57 51 46 43 43 40 39 35 32 34
33 30 33 32 33 37 28 28 35 40 47 52 59 48 43 43 41 38 41 47 49 58 58 47 45 42 42 41 39 37 33 33
27 29 33 31 31 32 29 25 25 27 32 46 52 46 42 43 39 40 43 41 42 47 51 50 46 42 41 43 39 37 35 39
27 28 33 33 30 23 30 29 23 22 24 35 45 44 43 43 42 44 41 37 37 41 46 45 42 46 40 43 40 39 38 43
26 25 32 27 22 20 22 18 18 14 20 25 36 43 43 45 47 41 36 39 40 43 47 46 44 44 40 39 41 41 40 38
20 23 18 13 10 14 27 25 11 4 17 23 27 28 32 37 37 35 33 32 38 37 38 39 42 44 43 45 44 40 39 40
16 16 16 15 10 15 4 13 8 2 12 20 25 31 25 27 30 31 29 26 32 33 32 35 38 40 43 43 39 38 39 42
18 18 19 19 21 23 17 8 7 1 6 19 21 23 25 25 29 34 35 36 34 36 35 35 36 39 39 39 39 41 42 36
24 23 20 18 22 20 21 16 2 10 7 14 17 20 25 25 27 27 31 33 36 37 37 37 37 39 38 35 35 34 36 35
30 32 30 26 21 21 20 22 13 5 3 11 12 23 19 26 28 30 34 35 37 36 34 32 32 32 34 38 39 43 35 36
27 30 33 34 33 29 27 22 20 14 10 7 12 14 14 25 29 44 39 32 32 33 32 29 30 34 36 37 42 32 38 35
24 26 27 28 30 31 30 26 25 21 21 15 9 6 6 5 26 24 30 33 36 37 32 30 38 31 32 30 35 34 33 32

GFSFLT1_700_spd_117.txt.gz
Wind_Speed
25 34 34 36 33 35 36 40 48 48 45 46 46 42 44 45 47 49 46 44 40 38 40 38 36 35 32 28 29 29 28 27
37 35 36 35 36 35 35 40 43 48 52 50 49 51 49 49 48 48 47 47 46 44 41 40 38 36 37 34 33 33 32 32
36 36 36 40 41 39 40 41 44 47 51 55 57 55 54 55 51 48 47 49 50 47 45 42 39 34 35 40 38 36 35 36
36 39 38 39 41 43 42 42 45 48 52 55 58 61 62 60 63 55 53 52 55 51 47 46 44 40 38 37 42 42 39 39
32 35 34 35 38 43 45 46 43 45 50 55 59 61 63 59 62 65 59 59 59 54 52 51 50 46 41 38 38 43 43 42
32 33 35 34 36 42 44 43 44 44 45 50 57 63 63 63 63 64 70 64 62 57 56 57 54 51 45 41 39 39 44 46
30 31 31 31 34 37 43 44 46 46 46 45 51 61 64 63 61 57 60 66 64 61 61 60 59 54 51 44 42 42 41 42
33 34 34 34 32 30 38 41 43 43 45 48 50 55 62 65 61 58 45 54 57 59 61 63 60 57 54 51 48 45 42 42
31 31 33 36 34 33 35 37 41 39 42 49 54 53 55 61 65 53 62 42 50 48 55 57 63 60 57 54 50 45 43 43
28 28 31 31 31 37 32 30 38 37 36 38 43 54 58 57 61 56 49 47 46 46 43 53 57 66 58 55 51 49 45 45
27 26 25 27 32 28 25 24 29 34 32 33 32 36 47 48 54 53 48 48 46 43 44 48 50 56 61 52 50 47 46 45
24 22 23 25 28 30 26 19 17 18 25 26 25 25 30 37 46 46 45 46 44 43 40 41 44 45 52 53 50 49 46 44
20 17 19 21 16 24 23 19 16 18 21 20 15 15 21 31 39 39 41 43 42 36 36 35 37 40 45 49 50 49 47 42
12 13 14 14 13 18 15 6 7 13 12 13 11 13 23 31 36 35 36 36 37 35 34 33 33 40 43 48 47 50 47 44
20 20 20 18 20 19 18 15 7 6 7 11 15 18 24 26 31 34 29 33 36 32 33 35 36 41 46 46 47 48 47 47
26 28 28 26 20 21 22 20 18 11 9 2 20 23 22 24 22 26 30 30 30 31 33 35 37 39 40 41 42 46 48 47
23 27 28 27 27 28 27 28 24 17 15 11 9 21 30 25 23 22 23 28 31 31 30 31 30 30 34 38 44 45 43 42
21 24 26 29 30 29 30 30 27 28 29 26 19 12 7 18 23 24 26 27 30 33 36 41 40 35 36 37 35 36 37 40
21 23 26 26 28 28 30 30 30 29 28 29 26 22 17 13 9 15 29 30 33 30 33 34 38 37 32 32 37 33 31 37

GFSFLT1_700_spd_120.txt.gz
Wind_Speed
34 31 36 40 39 36 31 37 39 40 41 42 40 41 43 42 42 46 50 45 40 40 39 36 34 34 33 32 28 27 27 27
35 42 45 45 42 41 39 37 38 41 42 43 46 45 41 46 43 44 44 48 47 45 45 44 39 38 37 37 34 31 31 30
39 48 50 47 42 39 40 42 43 43 44 47 49 50 53 50 48 49 44 47 49 50 50 49 45 42 40 41 38 37 36 34
40 47 45 44 42 40 40 41 44 46 47 49 51 52 52 54 54 55 53 51 50 51 51 50 51 47 44 41 39 36 36 39
42 41 40 42 43 44 45 44 42 41 47 50 53 56 57 56 57 55 49 57 56 54 52 49 50 53 48 45 40 39 36 35
33 38 41 40 40 39 40 44 45 43 44 48 52 55 59 61 59 61 63 50 61 57 56 55 51 55 50 52 45 43 41 36
32 37 39 39 38 40 41 41 42 43 45 45 48 50 52 57 61 61 63 68 66 63 59 58 56 57 56 50 41 44 44 40
35 38 39 39 37 38 40 40 40 40 43 45 47 50 49 50 53 59 59 60 65 62 57 61 60 62 59 57 50 49 45 45
40 36 36 35 36 36 32 34 38 42 44 45 46 47 48 48 49 50 55 61 59 55 55 51 60 63 60 57 55 52 50 48
34 34 32 31 32 30 30 29 31 38 41 42 43 43 44 46 49 53 52 52 62 60 56 52 49 58 60 57 57 56 52 50
31 28 26 27 29 27 26 31 29 26 28 33 39 40 42 45 46 49 53 52 52 60 59 55 55 50 49 50 51 57 56 52
27 24 24 26 26 24 29 30 27 20 19 22 28 31 35 37 38 41 45 51 50 53 57 53 65 38 39 46 48 52 53 51
22 20 18 18 17 20 22 23 24 24 15 18 19 23 24 23 27 29 29 34 38 47 44 57 59 34 40 41 44 48 47 49
14 12 14 14 16 18 22 23 24 24 18 20 20 14 15 15 15 17 22 28 35 40 42 44 38 41 41 36 37 41 45 47
13 17 20 21 19 19 21 22 25 25 20 15 10 13 11 11 12 15 18 22 29 34 38 41 41 39 36 35 38 38 40 43
16 22 24 26 25 26 28 28 23 23 22 18 13 10 12 12 17 16 22 26 32 35 32 31 30 33 37 31 32 37 41 43
14 19 23 24 28 30 32 33 33 32 31 31 26 22 11 13 11 12 15 27 38 22 30 32 26 33 30 32 32 34 38 41
17 18 21 22 27 29 33 35 33 34 35 34 34 31 26 5 8 7 11 8 14 15 17 19 23 22 31 29 32 35 37 42
16 19 20 22 25 27 30 31 31 35 38 39 37 37 37 33 27 20 8 9 10 12 17 19 21 25 31 24 19 23 41 41

GFSFLT1_700_spd_123.txt.gz
Wind_Speed
38 40 41 41 41 41 42 39 39 42 44 41 39 40 43 42 43 45 43 46 48 41 37 35 35 36 33 30 31 27 23 22
47 46 46 44 43 43 43 44 46 47 45 44 46 43 44 45 45 46 43 48 47 45 47 41 42 41 38 35 33 32 28 27
43 52 50 45 44 45 46 47 50 50 48 49 49 49 47 48 48 48 49 49 46 46 58 49 45 45 43 42 39 38 36 32
45 45 43 42 44 46 49 53 49 48 50 48 50 53 53 50 50 53 53 53 49 49 52 49 55 50 48 47 46 43 42 37
34 38 38 41 45 49 56 56 57 56 53 50 49 51 55 55 54 55 56 56 56 53 50 50 49 50 52 53 51 49 46 43
32 37 41 45 48 53 56 57 54 51 49 48 50 51 53 56 56 58 58 59 59 58 54 51 52 51 51 55 55 59 54 46
28 34 40 44 45 48 50 52 53 50 48 49 50 50 50 52 54 57 59 60 60 61 58 56 54 52 53 53 56 64 63 56
33 38 42 45 48 47 47 47 46 47 48 46 47 49 49 47 47 50 53 59 61 62 56 54 58 56 54 56 59 62 53 62
34 39 44 43 43 42 43 45 44 41 41 43 45 48 49 49 46 44 45 49 55 60 64 59 57 59 56 56 56 57 54 47
35 38 40 42 40 37 37 36 32 34 38 43 43 41 45 47 44 43 42 41 44 47 53 64 62 62 56 51 56 57 55 51
33 34 36 35 32 31 31 28 27 27 27 28 29 31 32 36 38 39 38 37 39 42 46 50 60 61 56 52 49 50 54 54
31 30 28 27 26 24 22 21 22 22 23 20 18 20 21 24 28 31 35 38 40 44 47 52 50 59 57 55 55 44 49 52
25 24 24 21 18 17 16 18 22 26 23 21 19 13 14 15 17 24 29 30 32 38 42 49 49 50 53 53 45 54 50 38
18 18 16 15 15 15 17 21 25 24 27 26 19 5 7 9 12 12 12 15 18 18 27 39 47 45 44 47 53 48 49 40
15 14 17 19 20 23 26 25 27 28 30 33 21 5 6 5 4 5 6 9 10 11 16 23 36 42 39 43 41 39 39 39
8 12 16 20 25 27 30 30 31 32 32 35 36 26 11 4 5 9 11 14 17 15 17 21 26 31 38 36 39 39 34 34
5 11 19 21 24 27 28 29 32 36 41 41 38 37 32 25 13 16 6 9 19 24 22 26 30 32 36 29 38 44 42 43
14 11 15 19 21 24 25 29 32 35 36 38 40 42 43 42 39 36 27 20 11 12 6 28 33 42 33 24 22 31 38 48
7 11 14 17 19 21 24 26 28 31 33 34 36 37 40 42 45 45 46 42 41 40 37 36 17 12 12 17 13 23 24 27

GFSFLT1_700_spd_126.txt.gz
Wind_Speed
38 40 42 44 44 42 41 43 45 46 45 42 41 44 47 45 42 45 44 47 47 56 61 50 38 39 39 38 35 33 30 27
39 40 43 50 48 47 46 46 49 50 49 47 46 49 51 54 52 49 46 47 48 53 50 46 71 52 43 40 38 37 35 31
38 44 46 45 45 47 49 51 50 51 52 51 52 53 57 54 55 54 53 50 50 50 51 42 38 53 47 41 41 40 38 39
41 43 47 49 45 44 46 48 51 50 51 54 57 60 56 57 57 58 55 55 53 52 51 48 43 48 52 50 47 48 45 44
37 40 43 46 46 43 43 45 50 54 59 61 64 65 65 62 61 59 59 57 56 57 55 55 50 44 45 47 53 56 50 48
32 34 36 40 43 48 53 56 58 61 64 66 65 65 62 57 53 57 58 59 59 58 59 58 55 52 50 54 56 58 54 56
28 31 34 39 41 45 50 54 56 56 57 57 59 57 54 52 47 48 52 56 59 59 60 61 60 57 56 54 53 56 63 59
31 35 41 45 48 50 54 54 52 50 50 51 52 53 52 50 47 45 44 49 53 57 59 61 62 60 58 56 53 53 53 65
37 40 43 44 46 47 49 47 45 45 46 44 44 46 48 46 46 45 43 43 46 50 54 58 61 60 57 61 57 56 53 55
35 39 40 38 38 40 40 40 39 39 38 36 36 40 44 46 45 43 42 42 42 43 47 53 55 60 60 57 57 60 54 55
36 36 35 34 32 32 32 31 31 29 28 28 28 25 27 30 32 35 36 34 35 38 38 41 46 50 58 62 60 55 51 52
29 29 29 29 29 29 28 27 25 24 23 20 20 19 18 16 14 16 19 23 26 29 32 36 40 43 49 59 67 60 60 59
23 24 24 24 22 21 17 14 19 25 28 27 18 12 4 6 6 7 9 12 17 23 29 35 40 42 45 49 52 67 61 55
17 19 19 18 17 18 18 21 26 32 36 33 25 14 5 5 6 4 4 6 11 16 22 29 35 39 41 45 48 48 54 53
12 13 13 15 17 22 26 29 32 34 39 38 34 25 11 5 5 6 3 6 10 11 13 19 19 20 31 37 40 42 44 48
8 6 7 15 19 22 24 26 28 33 38 41 44 44 37 24 12 4 6 7 11 16 17 17 17 14 13 20 28 34 32 41
1 11 12 9 12 16 21 23 27 32 33 39 42 44 46 46 45 42 38 32 18 10 14 14 17 16 17 18 22 30 40 39
8 5 5 7 11 15 19 21 22 25 26 28 30 33 36 41 42 43 45 43 42 43 28 12 1 12 16 22 25 26 32 36
4 3 5 8 11 15 17 18 20 22 25 27 30 31 33 34 32 33 33 33 34 37 40 42 42 40 33 18 3 12 15 22

GFSFLT1_700_spd_129.txt.gz
Wind_Speed
33 34 37 40 41 41 43 50 48 46 46 45 45 44 43 43 42 41 43 45 47 48 51 42 60 64 52 51 45 42 42 40
35 35 36 38 40 41 41 42 47 52 53 52 51 49 50 49 47 48 48 47 50 52 53 50 42 55 63 51 44 46 42 40
39 39 40 42 41 42 42 43 46 50 55 57 57 55 53 53 53 53 52 52 53 49 52 52 51 47 52 53 58 48 46 44
37 38 39 40 42 43 45 45 46 47 48 50 54 56 59 58 57 59 60 62 58 55 52 54 54 52 41 45 65 58 47 48
33 36 39 41 42 44 45 45 45 46 49 52 55 59 61 65 68 66 69 65 62 60 56 52 55 52 45 32 53 61 57 49
31 32 34 35 38 41 44 47 49 52 55 56 59 62 64 65 66 67 65 66 63 58 55 51 53 55 53 52 50 56 62 40
27 30 35 39 43 47 51 56 59 60 62 62 62 63 65 63 60 59 56 57 55 52 51 50 51 55 56 54 49 43 54 42
32 35 36 37 41 46 49 50 50 51 53 54 56 58 57 57 55 54 51 48 49 48 46 49 50 52 55 56 54 52 55 54
28 32 37 41 44 45 44 41 40 40 42 45 46 49 49 48 48 46 45 42 42 43 44 45 48 49 52 55 57 58 58 57
32 35 40 40 39 38 37 35 36 36 38 41 42 42 41 43 44 44 43 40 37 37 39 41 44 46 49 51 55 57 61 61
35 40 37 35 33 31 29 27 26 26 30 32 30 29 30 33 32 29 26 28 29 29 30 34 37 41 43 49 52 57 58 59
36 36 29 28 28 25 23 21 22 25 27 24 19 15 15 15 11 11 12 14 16 20 21 27 31 34 35 40 46 52 58 57
33 23 22 20 19 20 18 19 22 31 37 32 23 15 9 8 9 9 9 8 7 8 11 16 21 25 28 32 36 42 46 56
21 16 15 14 12 15 19 22 28 36 41 42 35 22 18 18 14 14 14 11 7 3 5 10 16 20 26 31 35 38 38 42
15 12 10 11 14 12 16 21 28 34 38 42 45 46 39 26 22 17 18 18 15 11 10 10 12 12 17 21 26 31 36 39
11 8 3 11 11 12 13 17 21 27 32 37 40 45 48 48 49 44 33 25 17 15 15 14 16 16 16 16 10 14 25 32
7 3 4 4 5 7 9 13 16 21 21 25 28 28 29 34 38 38 40 46 46 40 28 19 10 14 17 15 11 13 18 20
5 1 2 2 5 7 10 13 17 18 20 23 26 29 30 31 33 31 31 34 35 36 40 44 43 35 26 17 9 12 14 16
5 2 1 2 4 7 10 12 14 15 17 20 23 26 27 28 28 29 30 30 30 31 29 28 30 34 36 35 31 24 12 4